Observation data for Aiken on 10/17/2019      Previous  Date       Current Mesonet Observations  Soil Data  Daily Summary Page  Observations in Plain Language
KAI1 170500Z 20004KT 07/00 A3012 RMK A01 T00710001  RH  061%=      5-min Rain = 0
KAI1 170501Z 20005KT 07/00 A3012 RMK A01 T00700001  RH  062%=      5-min Rain = 0
KAI1 170502Z 20005KT 07/00 A3012 RMK A01 T00700002  RH  062%=      5-min Rain = 0
KAI1 170503Z 20006KT 07/00 A3012 RMK A01 T00690002  RH  062%=      5-min Rain = 0
KAI1 170504Z 20006KT 07/00 A3012 RMK A01 T00690002  RH  062%=      5-min Rain = 0
KAI1 170505Z 20005KT 07/00 A3012 RMK A01 T00690002  RH  062%=      5-min Rain = 0
KAI1 170506Z 20005KT 07/00 A3012 RMK A01 T00680002  RH  063%=      5-min Rain = 0
KAI1 170507Z 20005KT 07/00 A3012 RMK A01 T00670001  RH  063%=      5-min Rain = 0
KAI1 170508Z 20005KT 07/00 A3012 RMK A01 T00650000  RH  063%=      5-min Rain = 0
KAI1 170509Z 20005KT 06/00 A3012 RMK A01 T00640000  RH  064%=      5-min Rain = 0
KAI1 170510Z 20006KT 06/00 A3012 RMK A01 T00620000  RH  064%=      5-min Rain = 0
KAI1 170511Z 20006KT 06/00 A3011 RMK A01 T00620000  RH  065%=      5-min Rain = 0
KAI1 170512Z 20006KT 06/00 A3011 RMK A01 T00610001  RH  065%=      5-min Rain = 0
KAI1 170513Z 20006KT 06/00 A3011 RMK A01 T00610001  RH  065%=      5-min Rain = 0
KAI1 170514Z 20006KT 06/00 A3011 RMK A01 T00610001  RH  065%=      5-min Rain = 0
KAI1 170515Z 20006KT 06/00 A3011 RMK A01 T00610001  RH  066%=      5-min Rain = 0
KAI1 170516Z 20005KT 06/00 A3011 RMK A01 T00610001  RH  066%=      5-min Rain = 0
KAI1 170517Z 20005KT 06/00 A3011 RMK A01 T00600002  RH  066%=      5-min Rain = 0
KAI1 170518Z 20005KT 06/00 A3011 RMK A01 T00600001  RH  066%=      5-min Rain = 0
KAI1 170519Z 20005KT 06/00 A3011 RMK A01 T00590001  RH  066%=      5-min Rain = 0
KAI1 170520Z 20005KT 06/00 A3011 RMK A01 T00590001  RH  066%=      5-min Rain = 0
KAI1 170521Z 20006KT 06/00 A3011 RMK A01 T00580001  RH  067%=      5-min Rain = 0
KAI1 170522Z 20006KT 06/00 A3011 RMK A01 T00580001  RH  067%=      5-min Rain = 0
KAI1 170523Z 20006KT 06/00 A3011 RMK A01 T00580001  RH  067%=      5-min Rain = 0
KAI1 170524Z 20006KT 06/00 A3011 RMK A01 T00580001  RH  067%=      5-min Rain = 0
KAI1 170525Z 20006KT 06/00 A3011 RMK A01 T00580001  RH  067%=      5-min Rain = 0
KAI1 170526Z 20006KT 06/00 A3011 RMK A01 T00580001  RH  067%=      5-min Rain = 0
KAI1 170527Z 20006KT 06/00 A3011 RMK A01 T00580002  RH  067%=      5-min Rain = 0
KAI1 170528Z 20006KT 06/00 A3011 RMK A01 T00580002  RH  067%=      5-min Rain = 0
KAI1 170529Z 20007KT 06/00 A3011 RMK A01 T00580002  RH  067%=      5-min Rain = 0
KAI1 170530Z 20006KT 06/00 A3011 RMK A01 T00580002  RH  067%=      5-min Rain = 0
KAI1 170531Z 20006KT 06/00 A3011 RMK A01 T00580002  RH  067%=      5-min Rain = 0
KAI1 170532Z 20006KT 06/00 A3011 RMK A01 T00580002  RH  067%=      5-min Rain = 0
KAI1 170533Z 20006KT 06/00 A3011 RMK A01 T00580002  RH  067%=      5-min Rain = 0
KAI1 170534Z 20006KT 06/00 A3011 RMK A01 T00580002  RH  067%=      5-min Rain = 0
KAI1 170535Z 20005KT 06/00 A3011 RMK A01 T00590002  RH  067%=      5-min Rain = 0
KAI1 170536Z 20005KT 06/00 A3011 RMK A01 T00590002  RH  067%=      5-min Rain = 0
KAI1 170537Z 20005KT 06/00 A3011 RMK A01 T00590002  RH  067%=      5-min Rain = 0
KAI1 170538Z 20005KT 06/00 A3011 RMK A01 T00590002  RH  067%=      5-min Rain = 0
KAI1 170539Z 21005KT 06/00 A3011 RMK A01 T00590002  RH  067%=      5-min Rain = 0
KAI1 170540Z 20005KT 06/00 A3011 RMK A01 T00590002  RH  067%=      5-min Rain = 0
KAI1 170541Z 20005KT 06/00 A3011 RMK A01 T00590002  RH  067%=      5-min Rain = 0
KAI1 170542Z 20005KT 06/00 A3011 RMK A01 T00590003  RH  067%=      5-min Rain = 0
KAI1 170543Z 20006KT 06/00 A3011 RMK A01 T00590003  RH  067%=      5-min Rain = 0
KAI1 170544Z 20005KT 06/00 A3011 RMK A01 T00590004  RH  068%=      5-min Rain = 0
KAI1 170545Z 21005KT 06/00 A3011 RMK A01 T00590004  RH  068%=      5-min Rain = 0
KAI1 170546Z 21005KT 06/00 A3011 RMK A01 T00590004  RH  068%=      5-min Rain = 0
KAI1 170547Z 21005KT 06/00 A3011 RMK A01 T00580004  RH  068%=      5-min Rain = 0
KAI1 170548Z 21006KT 06/00 A3011 RMK A01 T00570003  RH  068%=      5-min Rain = 0
KAI1 170549Z 21005KT 06/00 A3011 RMK A01 T00570003  RH  068%=      5-min Rain = 0
KAI1 170550Z 21005KT 06/00 A3011 RMK A01 T00560003  RH  069%=      5-min Rain = 0
KAI1 170551Z 21005KT 06/00 A3011 RMK A01 T00550002  RH  069%=      5-min Rain = 0
KAI1 170552Z 21005KT 05/00 A3011 RMK A01 T00540002  RH  069%=      5-min Rain = 0
KAI1 170553Z 21005KT 05/00 A3011 RMK A01 T00530002  RH  070%=      5-min Rain = 0
KAI1 170554Z 21005KT 05/00 A3011 RMK A01 T00520002  RH  070%=      5-min Rain = 0
KAI1 170555Z 21004KT 05/00 A3011 RMK A01 T00510001  RH  070%=      5-min Rain = 0
KAI1 170556Z 21004KT 05/00 A3011 RMK A01 T00500001  RH  071%=      5-min Rain = 0
KAI1 170557Z 22004KT 05/00 A3011 RMK A01 T00480002  RH  072%=      5-min Rain = 0
KAI1 170558Z 22004KT 05/00 A3011 RMK A01 T00480002  RH  072%=      5-min Rain = 0
KAI1 170559Z 23003KT 05/00 A3011 RMK A01 T00470002  RH  073%=      5-min Rain = 0
KAI1 170600Z 23004KT 05/00 A3011 RMK A01 T00460002  RH  073%=      5-min Rain = 0
KAI1 170601Z 23005KT 05/00 A3011 RMK A01 T00450003  RH  074%=      5-min Rain = 0
KAI1 170602Z 23005KT 05/00 A3011 RMK A01 T00450004  RH  075%=      5-min Rain = 0
KAI1 170603Z 23005KT 04/00 A3011 RMK A01 T00440004  RH  075%=      5-min Rain = 0
KAI1 170604Z 23005KT 04/00 A3011 RMK A01 T00440003  RH  075%=      5-min Rain = 0
KAI1 170605Z 24005KT 04/00 A3011 RMK A01 T00430003  RH  075%=      5-min Rain = 0
KAI1 170606Z 24005KT 04/00 A3011 RMK A01 T00430003  RH  075%=      5-min Rain = 0
KAI1 170607Z 24005KT 04/00 A3011 RMK A01 T00430004  RH  075%=      5-min Rain = 0
KAI1 170608Z 24005KT 04/00 A3011 RMK A01 T00430003  RH  075%=      5-min Rain = 0
KAI1 170609Z 24006KT 04/00 A3011 RMK A01 T00430003  RH  076%=      5-min Rain = 0
KAI1 170610Z 23006KT 04/00 A3011 RMK A01 T00430004  RH  076%=      5-min Rain = 0
KAI1 170611Z 23006KT 04/01 A3011 RMK A01 T00430005  RH  076%=      5-min Rain = 0
KAI1 170612Z 23005KT 04/00 A3011 RMK A01 T00430004  RH  076%=      5-min Rain = 0
KAI1 170613Z 24005KT 04/00 A3011 RMK A01 T00430004  RH  076%=      5-min Rain = 0
KAI1 170614Z 24005KT 04/00 A3011 RMK A01 T00420004  RH  076%=      5-min Rain = 0
KAI1 170615Z 24006KT 04/00 A3011 RMK A01 T00420004  RH  076%=      5-min Rain = 0
KAI1 170616Z 24006KT 04/00 A3011 RMK A01 T00410003  RH  076%=      5-min Rain = 0
KAI1 170617Z 24006KT 04/00 A3011 RMK A01 T00410003  RH  077%=      5-min Rain = 0
KAI1 170618Z 23006KT 04/00 A3011 RMK A01 T00410004  RH  077%=      5-min Rain = 0
KAI1 170619Z 23007KT 04/00 A3011 RMK A01 T00400004  RH  077%=      5-min Rain = 0
KAI1 170620Z 23007KT 04/00 A3011 RMK A01 T00400004  RH  077%=      5-min Rain = 0
KAI1 170621Z 23007KT 04/00 A3011 RMK A01 T00400004  RH  077%=      5-min Rain = 0
KAI1 170622Z 22007KT 04/01 A3011 RMK A01 T00400005  RH  078%=      5-min Rain = 0
KAI1 170623Z 22007KT 04/01 A3011 RMK A01 T00410005  RH  078%=      5-min Rain = 0
KAI1 170624Z 22007KT 04/01 A3011 RMK A01 T00410005  RH  078%=      5-min Rain = 0
KAI1 170625Z 22008KT 04/01 A3011 RMK A01 T00410005  RH  078%=      5-min Rain = 0
KAI1 170626Z 22008KT 04/01 A3011 RMK A01 T00410006  RH  078%=      5-min Rain = 0
KAI1 170627Z 22008KT 04/01 A3011 RMK A01 T00410005  RH  078%=      5-min Rain = 0
KAI1 170628Z 22008KT 04/01 A3011 RMK A01 T00410006  RH  078%=      5-min Rain = 0
KAI1 170629Z 22008KT 04/01 A3011 RMK A01 T00420006  RH  078%=      5-min Rain = 0
KAI1 170630Z 22008KT 04/01 A3011 RMK A01 T00430007  RH  077%=      5-min Rain = 0
KAI1 170631Z 22008KT 04/01 A3011 RMK A01 T00430007  RH  077%=      5-min Rain = 0
KAI1 170632Z 22007KT 04/01 A3011 RMK A01 T00440007  RH  077%=      5-min Rain = 0
KAI1 170633Z 22007KT 04/01 A3011 RMK A01 T00440006  RH  076%=      5-min Rain = 0
KAI1 170634Z 22007KT 04/01 A301 RMK A01 T00440006  RH  076%=      5-min Rain = 0
KAI1 170635Z 22007KT 04/01 A301 RMK A01 T00420005  RH  077%=      5-min Rain = 0
KAI1 170636Z 22007KT 04/01 A301 RMK A01 T00410005  RH  077%=      5-min Rain = 0
KAI1 170637Z 22006KT 04/00 A301 RMK A01 T00400004  RH  078%=      5-min Rain = 0
KAI1 170638Z 22007KT 04/00 A301 RMK A01 T00390004  RH  078%=      5-min Rain = 0
KAI1 170639Z 23007KT 04/01 A301 RMK A01 T00390005  RH  078%=      5-min Rain = 0
KAI1 170640Z 22007KT 04/01 A301 RMK A01 T00380005  RH  079%=      5-min Rain = 0
KAI1 170641Z 23007KT 04/01 A301 RMK A01 T00380005  RH  079%=      5-min Rain = 0
KAI1 170642Z 23007KT 04/01 A301 RMK A01 T00380006  RH  079%=      5-min Rain = 0
KAI1 170643Z 23006KT 04/01 A301 RMK A01 T00380006  RH  080%=      5-min Rain = 0
KAI1 170644Z 23006KT 04/01 A301 RMK A01 T00380006  RH  080%=      5-min Rain = 0
KAI1 170645Z 23006KT 04/01 A301 RMK A01 T00380006  RH  080%=      5-min Rain = 0
KAI1 170646Z 23006KT 04/01 A301 RMK A01 T00370007  RH  080%=      5-min Rain = 0
KAI1 170647Z 23007KT 04/01 A301 RMK A01 T00370007  RH  080%=      5-min Rain = 0
KAI1 170648Z 23007KT 04/01 A301 RMK A01 T00370007  RH  081%=      5-min Rain = 0
KAI1 170649Z 23007KT 04/01 A301 RMK A01 T00360006  RH  081%=      5-min Rain = 0
KAI1 170650Z 23007KT 04/01 A301 RMK A01 T00360006  RH  081%=      5-min Rain = 0
KAI1 170651Z 23007KT 04/01 A301 RMK A01 T00360006  RH  081%=      5-min Rain = 0
KAI1 170652Z 23007KT 04/01 A301 RMK A01 T00360006  RH  081%=      5-min Rain = 0
KAI1 170653Z 23007KT 04/01 A301 RMK A01 T00350006  RH  081%=      5-min Rain = 0
KAI1 170654Z 23008KT 04/01 A301 RMK A01 T00350006  RH  081%=      5-min Rain = 0
KAI1 170655Z 23008KT 04/01 A3011 RMK A01 T00360007  RH  081%=      5-min Rain = 0
KAI1 170656Z 23008KT 04/01 A3011 RMK A01 T00360007  RH  081%=      5-min Rain = 0
KAI1 170657Z 23008KT 04/01 A3011 RMK A01 T00370008  RH  081%=      5-min Rain = 0
KAI1 170658Z 23008KT 04/01 A3011 RMK A01 T00370008  RH  081%=      5-min Rain = 0
KAI1 170659Z 23008KT 04/01 A301 RMK A01 T00380007  RH  081%=      5-min Rain = 0
KAI1 170700Z 22008KT 04/01 A3011 RMK A01 T00390007  RH  080%=      5-min Rain = 0
KAI1 170701Z 23008KT 04/01 A3011 RMK A01 T00400008  RH  080%=      5-min Rain = 0
KAI1 170702Z 23008KT 04/01 A3011 RMK A01 T00400007  RH  079%=      5-min Rain = 0
KAI1 170703Z 23008KT 04/01 A3011 RMK A01 T00410007  RH  079%=      5-min Rain = 0
KAI1 170704Z 23007KT 04/01 A3011 RMK A01 T00410007  RH  079%=      5-min Rain = 0
KAI1 170705Z 23007KT 04/01 A3011 RMK A01 T00410007  RH  079%=      5-min Rain = 0
KAI1 170706Z 23007KT 04/01 A3011 RMK A01 T00400007  RH  079%=      5-min Rain = 0
KAI1 170707Z 23007KT 04/01 A3011 RMK A01 T00400007  RH  079%=      5-min Rain = 0
KAI1 170708Z 23007KT 04/01 A3011 RMK A01 T00400007  RH  079%=      5-min Rain = 0
KAI1 170709Z 24006KT 04/01 A3011 RMK A01 T00390006  RH  079%=      5-min Rain = 0
KAI1 170710Z 24007KT 04/01 A3011 RMK A01 T00390007  RH  079%=      5-min Rain = 0
KAI1 170711Z 24006KT 04/01 A3011 RMK A01 T00390007  RH  079%=      5-min Rain = 0
KAI1 170712Z 24007KT 04/01 A3011 RMK A01 T00400007  RH  079%=      5-min Rain = 0
KAI1 170713Z 24006KT 04/01 A3011 RMK A01 T00400007  RH  079%=      5-min Rain = 0
KAI1 170714Z 24006KT 04/01 A3011 RMK A01 T00400007  RH  079%=      5-min Rain = 0
KAI1 170715Z 24006KT 04/01 A3011 RMK A01 T00400007  RH  079%=      5-min Rain = 0
KAI1 170716Z 24006KT 04/01 A3011 RMK A01 T00400007  RH  079%=      5-min Rain = 0
KAI1 170717Z 24006KT 04/01 A3011 RMK A01 T00400007  RH  080%=      5-min Rain = 0
KAI1 170718Z 24006KT 04/01 A3011 RMK A01 T00390007  RH  080%=      5-min Rain = 0
KAI1 170719Z 24006KT 04/01 A3011 RMK A01 T00400008  RH  080%=      5-min Rain = 0
KAI1 170720Z 24007KT 04/01 A3011 RMK A01 T00390007  RH  079%=      5-min Rain = 0
KAI1 170721Z 24007KT 04/01 A3011 RMK A01 T00390007  RH  079%=      5-min Rain = 0
KAI1 170722Z 23007KT 04/01 A3011 RMK A01 T00390007  RH  079%=      5-min Rain = 0
KAI1 170723Z 23007KT 04/01 A3011 RMK A01 T00400007  RH  079%=      5-min Rain = 0
KAI1 170724Z 23007KT 04/01 A3011 RMK A01 T00390006  RH  079%=      5-min Rain = 0
KAI1 170725Z 23008KT 04/01 A3011 RMK A01 T00400006  RH  079%=      5-min Rain = 0
KAI1 170726Z 23008KT 04/01 A301 RMK A01 T00410006  RH  078%=      5-min Rain = 0
KAI1 170727Z 23008KT 04/01 A301 RMK A01 T00410006  RH  078%=      5-min Rain = 0
KAI1 170728Z 23008KT 04/01 A301 RMK A01 T00420006  RH  077%=      5-min Rain = 0
KAI1 170729Z 23008KT 04/01 A301 RMK A01 T00420005  RH  077%=      5-min Rain = 0
KAI1 170730Z 23008KT 04/01 A301 RMK A01 T00420006  RH  077%=      5-min Rain = 0
KAI1 170731Z 23008KT 04/01 A301 RMK A01 T00420005  RH  077%=      5-min Rain = 0
KAI1 170732Z 23008KT 04/01 A301 RMK A01 T00420005  RH  077%=      5-min Rain = 0
KAI1 170733Z 23008KT 04/01 A301 RMK A01 T00420005  RH  077%=      5-min Rain = 0
KAI1 170734Z 23007KT 04/01 A301 RMK A01 T00420005  RH  077%=      5-min Rain = 0
KAI1 170735Z 23008KT 04/01 A301 RMK A01 T00430005  RH  076%=      5-min Rain = 0
KAI1 170736Z 23008KT 04/01 A301 RMK A01 T00440005  RH  076%=      5-min Rain = 0
KAI1 170737Z 23008KT 04/01 A301 RMK A01 T00440006  RH  076%=      5-min Rain = 0
KAI1 170738Z 23008KT 05/01 A301 RMK A01 T00450005  RH  076%=      5-min Rain = 0
KAI1 170739Z 23008KT 05/01 A301 RMK A01 T00460006  RH  075%=      5-min Rain = 0
KAI1 170740Z 23008KT 05/01 A301 RMK A01 T00470006  RH  074%=      5-min Rain = 0
KAI1 170741Z 23007KT 05/01 A301 RMK A01 T00490006  RH  074%=      5-min Rain = 0
KAI1 170742Z 23008KT 05/01 A301 RMK A01 T00490006  RH  074%=      5-min Rain = 0
KAI1 170743Z 23008KT 05/01 A301 RMK A01 T00500006  RH  073%=      5-min Rain = 0
KAI1 170744Z 23008KT 05/01 A301 RMK A01 T00500006  RH  073%=      5-min Rain = 0
KAI1 170745Z 23008KT 05/01 A301 RMK A01 T00510006  RH  073%=      5-min Rain = 0
KAI1 170746Z 23007KT 05/01 A301 RMK A01 T00510006  RH  072%=      5-min Rain = 0
KAI1 170747Z 23007KT 05/01 A301 RMK A01 T00520006  RH  072%=      5-min Rain = 0
KAI1 170748Z 23007KT 05/01 A301 RMK A01 T00510006  RH  072%=      5-min Rain = 0
KAI1 170749Z 23007KT 05/01 A301 RMK A01 T00510006  RH  072%=      5-min Rain = 0
KAI1 170750Z 23007KT 05/01 A301 RMK A01 T00510006  RH  072%=      5-min Rain = 0
KAI1 170751Z 23007KT 05/01 A301 RMK A01 T00510006  RH  072%=      5-min Rain = 0
KAI1 170752Z 23007KT 05/01 A301 RMK A01 T00500005  RH  073%=      5-min Rain = 0
KAI1 170753Z 23007KT 05/01 A301 RMK A01 T00500005  RH  073%=      5-min Rain = 0
KAI1 170754Z 23007KT 05/01 A301 RMK A01 T00500005  RH  073%=      5-min Rain = 0
KAI1 170755Z 23007KT 05/01 A301 RMK A01 T00490006  RH  073%=      5-min Rain = 0
KAI1 170756Z 23007KT 05/01 A301 RMK A01 T00490005  RH  073%=      5-min Rain = 0
KAI1 170757Z 23007KT 05/01 A301 RMK A01 T00490005  RH  073%=      5-min Rain = 0
KAI1 170758Z 23007KT 05/01 A301 RMK A01 T00490005  RH  073%=      5-min Rain = 0
KAI1 170759Z 24006KT 05/01 A301 RMK A01 T00490005  RH  073%=      5-min Rain = 0
KAI1 170800Z 24006KT 05/01 A301 RMK A01 T00480005  RH  074%=      5-min Rain = 0
KAI1 170801Z 24007KT 05/01 A301 RMK A01 T00480005  RH  074%=      5-min Rain = 0
KAI1 170802Z 24007KT 05/01 A301 RMK A01 T00470005  RH  074%=      5-min Rain = 0
KAI1 170803Z 24007KT 05/01 A301 RMK A01 T00470005  RH  074%=      5-min Rain = 0
KAI1 170804Z 24008KT 05/01 A301 RMK A01 T00470005  RH  074%=      5-min Rain = 0
KAI1 170805Z 24008KT 05/01 A301 RMK A01 T00470005  RH  074%=      5-min Rain = 0
KAI1 170806Z 24008KT 05/00 A301 RMK A01 T00470004  RH  074%=      5-min Rain = 0
KAI1 170807Z 24008KT 05/01 A301 RMK A01 T00480005  RH  074%=      5-min Rain = 0
KAI1 170808Z 24008KT 05/01 A301 RMK A01 T00480005  RH  073%=      5-min Rain = 0
KAI1 170809Z 24008KT 05/00 A301 RMK A01 T00490004  RH  073%=      5-min Rain = 0
KAI1 170810Z 24008KT 05/01 A301 RMK A01 T00490005  RH  073%=      5-min Rain = 0
KAI1 170811Z 24008KT 05/00 A301 RMK A01 T00490004  RH  073%=      5-min Rain = 0
KAI1 170812Z 24008KT 05/01 A301 RMK A01 T00500005  RH  072%=      5-min Rain = 0
KAI1 170813Z 24008KT 05/01 A301 RMK A01 T00510005  RH  072%=      5-min Rain = 0
KAI1 170814Z 24008KT 05/01 A301 RMK A01 T00500005  RH  072%=      5-min Rain = 0
KAI1 170815Z 24008KT 05/00 A301 RMK A01 T00500004  RH  072%=      5-min Rain = 0
KAI1 170816Z 24008KT 05/00 A301 RMK A01 T00510004  RH  072%=      5-min Rain = 0
KAI1 170817Z 24008KT 05/01 A301 RMK A01 T00510005  RH  072%=      5-min Rain = 0
KAI1 170818Z 25008KT 05/00 A301 RMK A01 T00510004  RH  072%=      5-min Rain = 0
KAI1 170819Z 25007KT 05/00 A301 RMK A01 T00510004  RH  072%=      5-min Rain = 0
KAI1 170820Z 25007KT 05/00 A301 RMK A01 T00510004  RH  072%=      5-min Rain = 0
KAI1 170821Z 24007KT 05/00 A301 RMK A01 T00510004  RH  072%=      5-min Rain = 0
KAI1 170822Z 24008KT 05/00 A301 RMK A01 T00500004  RH  072%=      5-min Rain = 0
KAI1 170823Z 24008KT 05/00 A301 RMK A01 T00500004  RH  072%=      5-min Rain = 0
KAI1 170824Z 24008KT 05/00 A301 RMK A01 T00500004  RH  072%=      5-min Rain = 0
KAI1 170825Z 24008KT 05/00 A301 RMK A01 T00500004  RH  072%=      5-min Rain = 0
KAI1 170826Z 23008KT 05/00 A301 RMK A01 T00510004  RH  072%=      5-min Rain = 0
KAI1 170827Z 24008KT 05/00 A301 RMK A01 T00510004  RH  072%=      5-min Rain = 0
KAI1 170828Z 24008KT 05/00 A3009 RMK A01 T00520004  RH  071%=      5-min Rain = 0
KAI1 170829Z 24008KT 05/00 A3009 RMK A01 T00520004  RH  071%=      5-min Rain = 0
KAI1 170830Z 24008KT 05/00 A3009 RMK A01 T00520004  RH  071%=      5-min Rain = 0
KAI1 170831Z 24008KT 05/00 A3009 RMK A01 T00520004  RH  072%=      5-min Rain = 0
KAI1 170832Z 23007KT 05/00 A3009 RMK A01 T00500004  RH  072%=      5-min Rain = 0
KAI1 170833Z 23007KT 05/00 A3009 RMK A01 T00500004  RH  072%=      5-min Rain = 0
KAI1 170834Z 23007KT 05/00 A3009 RMK A01 T00490004  RH  072%=      5-min Rain = 0
KAI1 170835Z 23007KT 05/00 A3009 RMK A01 T00480003  RH  073%=      5-min Rain = 0
KAI1 170836Z 23007KT 05/00 A3009 RMK A01 T00470003  RH  073%=      5-min Rain = 0
KAI1 170837Z 23007KT 05/00 A3009 RMK A01 T00470003  RH  073%=      5-min Rain = 0
KAI1 170838Z 23007KT 05/00 A3009 RMK A01 T00460003  RH  074%=      5-min Rain = 0
KAI1 170839Z 23007KT 05/00 A3009 RMK A01 T00460003  RH  074%=      5-min Rain = 0
KAI1 170840Z 23007KT 05/00 A3009 RMK A01 T00450003  RH  074%=      5-min Rain = 0
KAI1 170841Z 23006KT 04/00 A3009 RMK A01 T00440003  RH  074%=      5-min Rain = 0
KAI1 170842Z 23006KT 04/00 A3009 RMK A01 T00440003  RH  075%=      5-min Rain = 0
KAI1 170843Z 24006KT 04/00 A3009 RMK A01 T00430002  RH  075%=      5-min Rain = 0
KAI1 170844Z 24006KT 04/00 A3009 RMK A01 T00420002  RH  075%=      5-min Rain = 0
KAI1 170845Z 23006KT 04/00 A3009 RMK A01 T00410002  RH  075%=      5-min Rain = 0
KAI1 170846Z 23006KT 04/00 A3009 RMK A01 T00410002  RH  076%=      5-min Rain = 0
KAI1 170847Z 23006KT 04/00 A3009 RMK A01 T00400002  RH  076%=      5-min Rain = 0
KAI1 170848Z 23006KT 04/00 A3009 RMK A01 T00400002  RH  076%=      5-min Rain = 0
KAI1 170849Z 23005KT 04/00 A3009 RMK A01 T00400002  RH  076%=      5-min Rain = 0
KAI1 170850Z 23005KT 04/00 A3009 RMK A01 T00390002  RH  076%=      5-min Rain = 0
KAI1 170851Z 23005KT 04/00 A3009 RMK A01 T00390002  RH  077%=      5-min Rain = 0
KAI1 170852Z 23005KT 04/00 A3009 RMK A01 T00380001  RH  077%=      5-min Rain = 0
KAI1 170853Z 23006KT 04/00 A3009 RMK A01 T00370001  RH  077%=      5-min Rain = 0
KAI1 170854Z 23006KT 04/00 A3009 RMK A01 T00370001  RH  077%=      5-min Rain = 0
KAI1 170855Z 23006KT 04/00 A3009 RMK A01 T00360001  RH  078%=      5-min Rain = 0
KAI1 170856Z 23005KT 04/00 A3009 RMK A01 T00360001  RH  078%=      5-min Rain = 0
KAI1 170857Z 23006KT 04/00 A3009 RMK A01 T00350001  RH  078%=      5-min Rain = 0
KAI1 170858Z 23006KT 04/00 A3009 RMK A01 T00350001  RH  078%=      5-min Rain = 0
KAI1 170859Z 23006KT 04/00 A3009 RMK A01 T00350001  RH  078%=      5-min Rain = 0
KAI1 170900Z 23006KT 04/00 A3009 RMK A01 T00350002  RH  079%=      5-min Rain = 0
KAI1 170901Z 23006KT 04/00 A3009 RMK A01 T00350001  RH  079%=      5-min Rain = 0
KAI1 170902Z 23007KT 04/00 A3009 RMK A01 T00350001  RH  079%=      5-min Rain = 0
KAI1 170903Z 23007KT 03/00 A3009 RMK A01 T00340001  RH  079%=      5-min Rain = 0
KAI1 170904Z 22007KT 03/00 A3009 RMK A01 T00340001  RH  079%=      5-min Rain = 0
KAI1 170905Z 23007KT 03/00 A3008 RMK A01 T00340001  RH  079%=      5-min Rain = 0
KAI1 170906Z 23007KT 03/00 A3008 RMK A01 T00340001  RH  079%=      5-min Rain = 0
KAI1 170907Z 23007KT 03/00 A3008 RMK A01 T00340001  RH  079%=      5-min Rain = 0
KAI1 170908Z 23007KT 03/00 A3008 RMK A01 T00340001  RH  079%=      5-min Rain = 0
KAI1 170909Z 23007KT 03/00 A3008 RMK A01 T00330001  RH  079%=      5-min Rain = 0
KAI1 170910Z 23007KT 03/00 A3008 RMK A01 T00330001  RH  079%=      5-min Rain = 0
KAI1 170911Z 23007KT 03/00 A3008 RMK A01 T00330001  RH  079%=      5-min Rain = 0
KAI1 170912Z 23007KT 03/00 A3008 RMK A01 T00320000  RH  080%=      5-min Rain = 0
KAI1 170913Z 23007KT 03/00 A3008 RMK A01 T00320000  RH  080%=      5-min Rain = 0
KAI1 170914Z 23006KT 03/00 A3008 RMK A01 T00320000  RH  080%=      5-min Rain = 0
KAI1 170915Z 23006KT 03/00 A3008 RMK A01 T00320000  RH  080%=      5-min Rain = 0
KAI1 170916Z 23006KT 03/00 A3008 RMK A01 T00310000  RH  080%=      5-min Rain = 0
KAI1 170917Z 24006KT 03/00 A3008 RMK A01 T00310000  RH  080%=      5-min Rain = 0
KAI1 170918Z 24006KT 03/00 A3008 RMK A01 T00310000  RH  080%=      5-min Rain = 0
KAI1 170919Z 24006KT 03/00 A3008 RMK A01 T00300000  RH  081%=      5-min Rain = 0
KAI1 170920Z 24006KT 03/00 A3008 RMK A01 T00300000  RH  081%=      5-min Rain = 0
KAI1 170921Z 24006KT 03/00 A3008 RMK A01 T00300000  RH  081%=      5-min Rain = 0
KAI1 170922Z 23006KT 03/00 A3008 RMK A01 T00300001  RH  081%=      5-min Rain = 0
KAI1 170923Z 23006KT 03/00 A3008 RMK A01 T00300001  RH  081%=      5-min Rain = 0
KAI1 170924Z 23006KT 03/00 A3008 RMK A01 T00300001  RH  081%=      5-min Rain = 0
KAI1 170925Z 23006KT 03/00 A3008 RMK A01 T00300001  RH  081%=      5-min Rain = 0
KAI1 170926Z 23006KT 03/00 A3008 RMK A01 T00290001  RH  081%=      5-min Rain = 0
KAI1 170927Z 24006KT 03/00 A3008 RMK A01 T00290001  RH  081%=      5-min Rain = 0
KAI1 170928Z 24006KT 03/00 A3008 RMK A01 T00290000  RH  081%=      5-min Rain = 0
KAI1 170929Z 24006KT 03/00 A3008 RMK A01 T00290000  RH  082%=      5-min Rain = 0
KAI1 170930Z 24006KT 03/00 A3008 RMK A01 T00280000  RH  082%=      5-min Rain = 0
KAI1 170931Z 24006KT 03/00 A3008 RMK A01 T002800-0  RH  082%=      5-min Rain = 0
KAI1 170932Z 24006KT 03/00 A3008 RMK A01 T002800-0  RH  082%=      5-min Rain = 0
KAI1 170933Z 23006KT 03/M00 A3008 RMK A01 T00271001  RH  082%=      5-min Rain = 0
KAI1 170934Z 23007KT 03/00 A3008 RMK A01 T002600-0  RH  082%=      5-min Rain = 0
KAI1 170935Z 23007KT 03/M00 A3008 RMK A01 T00261001  RH  083%=      5-min Rain = 0
KAI1 170936Z 23007KT 03/M00 A3008 RMK A01 T00261001  RH  083%=      5-min Rain = 0
KAI1 170937Z 23007KT 03/00 A3008 RMK A01 T002600-0  RH  083%=      5-min Rain = 0
KAI1 170938Z 23007KT 03/M00 A3008 RMK A01 T00261001  RH  083%=      5-min Rain = 0
KAI1 170939Z 24007KT 03/M00 A3008 RMK A01 T00261001  RH  083%=      5-min Rain = 0
KAI1 170940Z 24007KT 03/M00 A3008 RMK A01 T00251001  RH  083%=      5-min Rain = 0
KAI1 170941Z 24007KT 03/M00 A3008 RMK A01 T00251001  RH  083%=      5-min Rain = 0
KAI1 170942Z 24007KT 03/M00 A3008 RMK A01 T00251002  RH  083%=      5-min Rain = 0
KAI1 170943Z 24006KT 02/M00 A3008 RMK A01 T00241002  RH  083%=      5-min Rain = 0
KAI1 170944Z 24006KT 02/M00 A3008 RMK A01 T00241002  RH  083%=      5-min Rain = 0
KAI1 170945Z 23006KT 02/M00 A3007 RMK A01 T00231002  RH  083%=      5-min Rain = 0
KAI1 170946Z 23006KT 02/M00 A3007 RMK A01 T00231002  RH  083%=      5-min Rain = 0
KAI1 170947Z 23006KT 02/M00 A3007 RMK A01 T00231003  RH  083%=      5-min Rain = 0
KAI1 170948Z 23006KT 02/M00 A3007 RMK A01 T00231003  RH  084%=      5-min Rain = 0
KAI1 170949Z 23006KT 02/M00 A3007 RMK A01 T00221003  RH  084%=      5-min Rain = 0
KAI1 170950Z 23006KT 02/M00 A3007 RMK A01 T00221003  RH  084%=      5-min Rain = 0
KAI1 170951Z 23006KT 02/M00 A3007 RMK A01 T00221003  RH  084%=      5-min Rain = 0
KAI1 170952Z 23006KT 02/M00 A3007 RMK A01 T00221003  RH  084%=      5-min Rain = 0
KAI1 170953Z 23006KT 02/M00 A3007 RMK A01 T00211003  RH  084%=      5-min Rain = 0
KAI1 170954Z 24006KT 02/M00 A3008 RMK A01 T00211004  RH  084%=      5-min Rain = 0
KAI1 170955Z 24006KT 02/M00 A3008 RMK A01 T00201004  RH  084%=      5-min Rain = 0
KAI1 170956Z 24006KT 02/M00 A3008 RMK A01 T00201004  RH  084%=      5-min Rain = 0
KAI1 170957Z 24006KT 02/M00 A3008 RMK A01 T00201004  RH  084%=      5-min Rain = 0
KAI1 170958Z 24006KT 02/M00 A3008 RMK A01 T00201003  RH  085%=      5-min Rain = 0
KAI1 170959Z 24006KT 02/M00 A3008 RMK A01 T00201004  RH  085%=      5-min Rain = 0
KAI1 171000Z 23005KT 02/M00 A3008 RMK A01 T00201004  RH  085%=      5-min Rain = 0
KAI1 171001Z 23006KT 02/M00 A3008 RMK A01 T00201004  RH  085%=      5-min Rain = 0
KAI1 171002Z 22006KT 02/M00 A3008 RMK A01 T00201004  RH  085%=      5-min Rain = 0
KAI1 171003Z 22006KT 02/M00 A3008 RMK A01 T00201003  RH  085%=      5-min Rain = 0
KAI1 171004Z 22006KT 02/M00 A3008 RMK A01 T00201003  RH  085%=      5-min Rain = 0
KAI1 171005Z 22006KT 02/M00 A3007 RMK A01 T00211002  RH  084%=      5-min Rain = 0
KAI1 171006Z 22007KT 02/M00 A3007 RMK A01 T00221002  RH  084%=      5-min Rain = 0
KAI1 171007Z 22007KT 02/M00 A3007 RMK A01 T00221002  RH  084%=      5-min Rain = 0
KAI1 171008Z 22007KT 02/M00 A3007 RMK A01 T00231002  RH  084%=      5-min Rain = 0
KAI1 171009Z 22007KT 02/M00 A3007 RMK A01 T00231002  RH  083%=      5-min Rain = 0
KAI1 171010Z 22007KT 02/M00 A3007 RMK A01 T00241003  RH  083%=      5-min Rain = 0
KAI1 171011Z 22007KT 02/M00 A3007 RMK A01 T00241003  RH  083%=      5-min Rain = 0
KAI1 171012Z 22007KT 02/M00 A3007 RMK A01 T00241003  RH  082%=      5-min Rain = 0
KAI1 171013Z 22007KT 02/M00 A3007 RMK A01 T00241003  RH  082%=      5-min Rain = 0
KAI1 171014Z 22007KT 02/M00 A3007 RMK A01 T00241003  RH  082%=      5-min Rain = 0
KAI1 171015Z 22007KT 02/M00 A3007 RMK A01 T00241003  RH  082%=      5-min Rain = 0
KAI1 171016Z 22007KT 03/M00 A3007 RMK A01 T00251003  RH  082%=      5-min Rain = 0
KAI1 171017Z 22007KT 03/M00 A3007 RMK A01 T00251003  RH  082%=      5-min Rain = 0
KAI1 171018Z 23007KT 03/M00 A3007 RMK A01 T00251003  RH  082%=      5-min Rain = 0
KAI1 171019Z 23007KT 03/M00 A3007 RMK A01 T00251003  RH  082%=      5-min Rain = 0
KAI1 171020Z 23007KT 03/M00 A3007 RMK A01 T00251003  RH  082%=      5-min Rain = 0
KAI1 171021Z 23007KT 02/M00 A3007 RMK A01 T00241004  RH  082%=      5-min Rain = 0
KAI1 171022Z 23007KT 02/M01 A3007 RMK A01 T00231005  RH  082%=      5-min Rain = 0
KAI1 171023Z 23007KT 02/M01 A3007 RMK A01 T00231005  RH  082%=      5-min Rain = 0
KAI1 171024Z 24007KT 02/M01 A3007 RMK A01 T00221005  RH  082%=      5-min Rain = 0
KAI1 171025Z 24007KT 02/M01 A3007 RMK A01 T00221005  RH  082%=      5-min Rain = 0
KAI1 171026Z 24007KT 02/M01 A3007 RMK A01 T00211005  RH  083%=      5-min Rain = 0
KAI1 171027Z 24007KT 02/M00 A3007 RMK A01 T00211004  RH  083%=      5-min Rain = 0
KAI1 171028Z 24007KT 02/M00 A3007 RMK A01 T00211004  RH  083%=      5-min Rain = 0
KAI1 171029Z 24007KT 02/M01 A3007 RMK A01 T00211005  RH  083%=      5-min Rain = 0
KAI1 171030Z 24006KT 02/M01 A3007 RMK A01 T00201005  RH  084%=      5-min Rain = 0
KAI1 171031Z 24006KT 02/M01 A3007 RMK A01 T00201005  RH  084%=      5-min Rain = 0
KAI1 171032Z 24006KT 02/M01 A3007 RMK A01 T00191005  RH  084%=      5-min Rain = 0
KAI1 171033Z 24006KT 02/M01 A3007 RMK A01 T00191005  RH  084%=      5-min Rain = 0
KAI1 171034Z 24006KT 02/M01 A3007 RMK A01 T00191005  RH  084%=      5-min Rain = 0
KAI1 171035Z 24006KT 02/M01 A3007 RMK A01 T00181005  RH  085%=      5-min Rain = 0
KAI1 171036Z 23005KT 02/M01 A3007 RMK A01 T00181005  RH  085%=      5-min Rain = 0
KAI1 171037Z 23005KT 02/M01 A3007 RMK A01 T00171006  RH  085%=      5-min Rain = 0
KAI1 171038Z 23005KT 02/M01 A3007 RMK A01 T00171005  RH  085%=      5-min Rain = 0
KAI1 171039Z 23005KT 02/M01 A3007 RMK A01 T00171005  RH  085%=      5-min Rain = 0
KAI1 171040Z 23005KT 02/M01 A3007 RMK A01 T00171005  RH  085%=      5-min Rain = 0
KAI1 171041Z 23005KT 02/M00 A3007 RMK A01 T00181004  RH  085%=      5-min Rain = 0
KAI1 171042Z 23006KT 02/M00 A3007 RMK A01 T00181004  RH  086%=      5-min Rain = 0
KAI1 171043Z 23005KT 02/M00 A3007 RMK A01 T00171004  RH  086%=      5-min Rain = 0
KAI1 171044Z 24005KT 02/M00 A3007 RMK A01 T00181003  RH  086%=      5-min Rain = 0
KAI1 171045Z 24005KT 02/M00 A3007 RMK A01 T00181003  RH  086%=      5-min Rain = 0
KAI1 171046Z 24005KT 02/M00 A3007 RMK A01 T00191003  RH  085%=      5-min Rain = 0
KAI1 171047Z 24005KT 02/M00 A3007 RMK A01 T00191004  RH  085%=      5-min Rain = 0
KAI1 171048Z 24005KT 02/M00 A3007 RMK A01 T00191004  RH  085%=      5-min Rain = 0
KAI1 171049Z 24005KT 02/M00 A3007 RMK A01 T00201004  RH  085%=      5-min Rain = 0
KAI1 171050Z 23005KT 02/M00 A3007 RMK A01 T00201003  RH  085%=      5-min Rain = 0
KAI1 171051Z 23005KT 02/M00 A3007 RMK A01 T00201004  RH  084%=      5-min Rain = 0
KAI1 171052Z 23005KT 02/M00 A3006 RMK A01 T00211004  RH  084%=      5-min Rain = 0
KAI1 171053Z 23005KT 02/M00 A3006 RMK A01 T00211004  RH  084%=      5-min Rain = 0
KAI1 171054Z 23005KT 02/M00 A3006 RMK A01 T00211004  RH  084%=      5-min Rain = 0
KAI1 171055Z 23005KT 02/M00 A3006 RMK A01 T00211003  RH  084%=      5-min Rain = 0
KAI1 171056Z 23005KT 02/M00 A3006 RMK A01 T00211003  RH  084%=      5-min Rain = 0
KAI1 171057Z 22005KT 02/M00 A3006 RMK A01 T00211004  RH  084%=      5-min Rain = 0
KAI1 171058Z 22005KT 02/M00 A3006 RMK A01 T00221003  RH  083%=      5-min Rain = 0
KAI1 171059Z 22005KT 02/M00 A3006 RMK A01 T00221003  RH  083%=      5-min Rain = 0
KAI1 171100Z 22006KT 02/M00 A3006 RMK A01 T00231003  RH  083%=      5-min Rain = 0
KAI1 171101Z 21006KT 02/M00 A3006 RMK A01 T00241002  RH  083%=      5-min Rain = 0
KAI1 171102Z 21006KT 03/M00 A3006 RMK A01 T00251002  RH  082%=      5-min Rain = 0
KAI1 171103Z 21006KT 03/M00 A3006 RMK A01 T00271001  RH  082%=      5-min Rain = 0
KAI1 171104Z 21006KT 03/M00 A3005 RMK A01 T00281001  RH  081%=      5-min Rain = 0
KAI1 171105Z 21007KT 03/M00 A3005 RMK A01 T00291001  RH  081%=      5-min Rain = 0
KAI1 171106Z 21007KT 03/M00 A3005 RMK A01 T00311001  RH  080%=      5-min Rain = 0
KAI1 171107Z 21007KT 03/M00 A3005 RMK A01 T00321001  RH  079%=      5-min Rain = 0
KAI1 171108Z 21007KT 03/M00 A3005 RMK A01 T00321001  RH  079%=      5-min Rain = 0
KAI1 171109Z 21007KT 03/00 A3005 RMK A01 T003300-0  RH  079%=      5-min Rain = 0
KAI1 171110Z 21007KT 03/M00 A3005 RMK A01 T00331001  RH  079%=      5-min Rain = 0
KAI1 171111Z 21007KT 03/M00 A3005 RMK A01 T00331001  RH  079%=      5-min Rain = 0
KAI1 171112Z 21007KT 03/M00 A3005 RMK A01 T00331001  RH  078%=      5-min Rain = 0
KAI1 171113Z 21007KT 03/00 A3005 RMK A01 T003400-0  RH  078%=      5-min Rain = 0
KAI1 171114Z 21007KT 03/M00 A3005 RMK A01 T00341001  RH  078%=      5-min Rain = 0
KAI1 171115Z 21007KT 03/M00 A3006 RMK A01 T00341001  RH  078%=      5-min Rain = 0
KAI1 171116Z 21007KT 03/M00 A3006 RMK A01 T00331002  RH  078%=      5-min Rain = 0
KAI1 171117Z 21006KT 03/M00 A3006 RMK A01 T00321002  RH  078%=      5-min Rain = 0
KAI1 171118Z 21007KT 03/M00 A3006 RMK A01 T00311002  RH  079%=      5-min Rain = 0
KAI1 171119Z 21006KT 03/M00 A3006 RMK A01 T00311002  RH  079%=      5-min Rain = 0
KAI1 171120Z 21007KT 03/M00 A3006 RMK A01 T00301002  RH  079%=      5-min Rain = 0
KAI1 171121Z 21007KT 03/M00 A3006 RMK A01 T00301002  RH  080%=      5-min Rain = 0
KAI1 171122Z 21006KT 03/M00 A3006 RMK A01 T00301002  RH  080%=      5-min Rain = 0
KAI1 171123Z 21007KT 03/M00 A3006 RMK A01 T00291002  RH  080%=      5-min Rain = 0
KAI1 171124Z 22006KT 03/M00 A3006 RMK A01 T00281002  RH  080%=      5-min Rain = 0
KAI1 171125Z 22006KT 03/M00 A3006 RMK A01 T00271003  RH  081%=      5-min Rain = 0
KAI1 171126Z 22006KT 03/M00 A3006 RMK A01 T00251004  RH  081%=      5-min Rain = 0
KAI1 171127Z 22006KT 02/M01 A3006 RMK A01 T00231006  RH  081%=      5-min Rain = 0
KAI1 171128Z 22006KT 02/M01 A3006 RMK A01 T00221006  RH  082%=      5-min Rain = 0
KAI1 171129Z 22006KT 02/M01 A3006 RMK A01 T00211006  RH  082%=      5-min Rain = 0
KAI1 171130Z 22006KT 02/M01 A3006 RMK A01 T00201006  RH  083%=      5-min Rain = 0
KAI1 171131Z 22007KT 02/M01 A3006 RMK A01 T00191006  RH  084%=      5-min Rain = 0
KAI1 171132Z 22007KT 02/M01 A3006 RMK A01 T00191005  RH  084%=      5-min Rain = 0
KAI1 171133Z 22006KT 02/M01 A3006 RMK A01 T00191005  RH  084%=      5-min Rain = 0
KAI1 171134Z 22006KT 02/M01 A3006 RMK A01 T00181005  RH  084%=      5-min Rain = 0
KAI1 171135Z 22006KT 02/M01 A3006 RMK A01 T00181005  RH  085%=      5-min Rain = 0
KAI1 171136Z 22006KT 02/M01 A3006 RMK A01 T00171005  RH  085%=      5-min Rain = 0
KAI1 171137Z 22006KT 02/M01 A3006 RMK A01 T00181005  RH  085%=      5-min Rain = 0
KAI1 171138Z 22006KT 02/M01 A3006 RMK A01 T00171005  RH  085%=      5-min Rain = 0
KAI1 171139Z 22006KT 02/M01 A3006 RMK A01 T00171005  RH  085%=      5-min Rain = 0
KAI1 171140Z 23006KT 02/M01 A3006 RMK A01 T00161005  RH  086%=      5-min Rain = 0
KAI1 171141Z 22005KT 02/M01 A3006 RMK A01 T00161005  RH  086%=      5-min Rain = 0
KAI1 171142Z 22005KT 02/M01 A3006 RMK A01 T00161005  RH  086%=      5-min Rain = 0
KAI1 171143Z 22005KT 02/M01 A3006 RMK A01 T00161005  RH  086%=      5-min Rain = 0
KAI1 171144Z 22005KT 02/M01 A3006 RMK A01 T00161005  RH  086%=      5-min Rain = 0
KAI1 171145Z 23005KT 02/M01 A3006 RMK A01 T00161005  RH  086%=      5-min Rain = 0
KAI1 171146Z 23006KT 02/M00 A3006 RMK A01 T00161004  RH  087%=      5-min Rain = 0
KAI1 171147Z 23006KT 02/M00 A3006 RMK A01 T00161004  RH  087%=      5-min Rain = 0
KAI1 171148Z 23006KT 02/M01 A3006 RMK A01 T00161005  RH  086%=      5-min Rain = 0
KAI1 171149Z 23006KT 02/M01 A3006 RMK A01 T00161005  RH  086%=      5-min Rain = 0
KAI1 171150Z 22007KT 02/M01 A3006 RMK A01 T00151005  RH  086%=      5-min Rain = 0
KAI1 171151Z 22007KT 02/M00 A3006 RMK A01 T00161004  RH  087%=      5-min Rain = 0
KAI1 171152Z 22006KT 02/M00 A3006 RMK A01 T00161004  RH  087%=      5-min Rain = 0
KAI1 171153Z 22006KT 02/M00 A3006 RMK A01 T00161004  RH  087%=      5-min Rain = 0
KAI1 171154Z 22006KT 02/M00 A3006 RMK A01 T00161004  RH  087%=      5-min Rain = 0
KAI1 171155Z 22006KT 02/M00 A3006 RMK A01 T00161004  RH  087%=      5-min Rain = 0
KAI1 171156Z 22006KT 02/M00 A3006 RMK A01 T00161004  RH  087%=      5-min Rain = 0
KAI1 171157Z 22006KT 02/M00 A3006 RMK A01 T00161004  RH  087%=      5-min Rain = 0
KAI1 171158Z 22006KT 02/M00 A3006 RMK A01 T00161004  RH  087%=      5-min Rain = 0
KAI1 171159Z 22006KT 02/M00 A3006 RMK A01 T00161004  RH  087%=      5-min Rain = 0
KAI1 171200Z 22006KT 02/M00 A3006 RMK A01 T00161003  RH  087%=      5-min Rain = 0
KAI1 171201Z 22006KT 02/M00 A3006 RMK A01 T00151004  RH  087%=      5-min Rain = 0
KAI1 171202Z 22007KT 02/M00 A3006 RMK A01 T00151004  RH  087%=      5-min Rain = 0
KAI1 171203Z 22007KT 02/M00 A3005 RMK A01 T00151004  RH  088%=      5-min Rain = 0
KAI1 171204Z 22007KT 01/M00 A3005 RMK A01 T00141004  RH  088%=      5-min Rain = 0
KAI1 171205Z 22007KT 01/M00 A3005 RMK A01 T00141004  RH  088%=      5-min Rain = 0
KAI1 171206Z 22007KT 01/M00 A3006 RMK A01 T00141004  RH  088%=      5-min Rain = 0
KAI1 171207Z 21007KT 01/M00 A3006 RMK A01 T00141004  RH  088%=      5-min Rain = 0
KAI1 171208Z 22007KT 01/M00 A3006 RMK A01 T00141004  RH  088%=      5-min Rain = 0
KAI1 171209Z 22007KT 02/M00 A3006 RMK A01 T00151004  RH  088%=      5-min Rain = 0
KAI1 171210Z 22007KT 02/M00 A3006 RMK A01 T00151003  RH  087%=      5-min Rain = 0
KAI1 171211Z 22007KT 02/M00 A3006 RMK A01 T00161003  RH  087%=      5-min Rain = 0
KAI1 171212Z 22007KT 02/M00 A3006 RMK A01 T00171003  RH  087%=      5-min Rain = 0
KAI1 171213Z 22007KT 02/M00 A3006 RMK A01 T00171003  RH  086%=      5-min Rain = 0
KAI1 171214Z 22007KT 02/M00 A3006 RMK A01 T00181003  RH  086%=      5-min Rain = 0
KAI1 171215Z 22006KT 02/M00 A3006 RMK A01 T00181003  RH  086%=      5-min Rain = 0
KAI1 171216Z 21006KT 02/M00 A3006 RMK A01 T00181003  RH  086%=      5-min Rain = 0
KAI1 171217Z 21006KT 02/M00 A3006 RMK A01 T00191002  RH  086%=      5-min Rain = 0
KAI1 171218Z 20006KT 02/M00 A3006 RMK A01 T00201001  RH  086%=      5-min Rain = 0
KAI1 171219Z 20006KT 02/M00 A3006 RMK A01 T00201001  RH  086%=      5-min Rain = 0
KAI1 171220Z 21006KT 02/00 A3006 RMK A01 T002100-0  RH  086%=      5-min Rain = 0
KAI1 171221Z 21006KT 02/00 A3006 RMK A01 T00220001  RH  086%=      5-min Rain = 0
KAI1 171222Z 21007KT 02/00 A3006 RMK A01 T00230002  RH  086%=      5-min Rain = 0
KAI1 171223Z 21007KT 03/00 A3006 RMK A01 T00250003  RH  085%=      5-min Rain = 0
KAI1 171224Z 21007KT 03/00 A3006 RMK A01 T00270003  RH  084%=      5-min Rain = 0
KAI1 171225Z 21007KT 03/00 A3006 RMK A01 T00290003  RH  083%=      5-min Rain = 0
KAI1 171226Z 21007KT 03/00 A3006 RMK A01 T00310004  RH  082%=      5-min Rain = 0
KAI1 171227Z 21007KT 03/00 A3005 RMK A01 T00320004  RH  082%=      5-min Rain = 0
KAI1 171228Z 21007KT 03/00 A3005 RMK A01 T00330004  RH  081%=      5-min Rain = 0
KAI1 171229Z 21007KT 03/00 A3005 RMK A01 T00330003  RH  081%=      5-min Rain = 0
KAI1 171230Z 21007KT 03/00 A3005 RMK A01 T00340003  RH  080%=      5-min Rain = 0
KAI1 171231Z 22007KT 03/00 A3006 RMK A01 T00340003  RH  080%=      5-min Rain = 0
KAI1 171232Z 22006KT 03/00 A3006 RMK A01 T00340003  RH  080%=      5-min Rain = 0
KAI1 171233Z 22005KT 03/00 A3006 RMK A01 T00340003  RH  080%=      5-min Rain = 0
KAI1 171234Z 22005KT 03/00 A3006 RMK A01 T00340003  RH  080%=      5-min Rain = 0
KAI1 171235Z 22006KT 03/00 A3006 RMK A01 T00330003  RH  081%=      5-min Rain = 0
KAI1 171236Z 21006KT 03/00 A3006 RMK A01 T00330003  RH  081%=      5-min Rain = 0
KAI1 171237Z 21006KT 03/00 A3006 RMK A01 T00330003  RH  081%=      5-min Rain = 0
KAI1 171238Z 21007KT 03/00 A3005 RMK A01 T00340003  RH  080%=      5-min Rain = 0
KAI1 171239Z 21007KT 03/00 A3005 RMK A01 T00340003  RH  080%=      5-min Rain = 0
KAI1 171240Z 21006KT 04/00 A3005 RMK A01 T00350003  RH  080%=      5-min Rain = 0
KAI1 171241Z 21006KT 04/00 A3005 RMK A01 T00350003  RH  080%=      5-min Rain = 0
KAI1 171242Z 21006KT 04/00 A3005 RMK A01 T00350003  RH  080%=      5-min Rain = 0
KAI1 171243Z 21006KT 04/00 A3005 RMK A01 T00350003  RH  080%=      5-min Rain = 0
KAI1 171244Z 21006KT 03/00 A3005 RMK A01 T00340003  RH  080%=      5-min Rain = 0
KAI1 171245Z 21006KT 03/00 A3005 RMK A01 T00340003  RH  080%=      5-min Rain = 0
KAI1 171246Z 21006KT 03/00 A3006 RMK A01 T00340003  RH  080%=      5-min Rain = 0
KAI1 171247Z 21006KT 03/00 A3005 RMK A01 T00340003  RH  081%=      5-min Rain = 0
KAI1 171248Z 21006KT 03/00 A3005 RMK A01 T00330003  RH  081%=      5-min Rain = 0
KAI1 171249Z 21006KT 03/00 A3005 RMK A01 T00330003  RH  081%=      5-min Rain = 0
KAI1 171250Z 21006KT 03/00 A3005 RMK A01 T00330003  RH  081%=      5-min Rain = 0
KAI1 171251Z 21006KT 03/00 A3005 RMK A01 T00320003  RH  081%=      5-min Rain = 0
KAI1 171252Z 21006KT 03/00 A3005 RMK A01 T00310003  RH  082%=      5-min Rain = 0
KAI1 171253Z 21006KT 03/00 A3005 RMK A01 T00310003  RH  082%=      5-min Rain = 0
KAI1 171254Z 21006KT 03/00 A3006 RMK A01 T00300003  RH  082%=      5-min Rain = 0
KAI1 171255Z 21006KT 03/00 A3006 RMK A01 T00290002  RH  083%=      5-min Rain = 0
KAI1 171256Z 21006KT 03/00 A3006 RMK A01 T00280002  RH  083%=      5-min Rain = 0
KAI1 171257Z 21006KT 03/00 A3006 RMK A01 T00270002  RH  083%=      5-min Rain = 0
KAI1 171258Z 21006KT 03/00 A3006 RMK A01 T00270002  RH  084%=      5-min Rain = 0
KAI1 171259Z 21006KT 03/00 A3006 RMK A01 T00260001  RH  084%=      5-min Rain = 0
KAI1 171300Z 21006KT 03/00 A3006 RMK A01 T00250000  RH  084%=      5-min Rain = 0
KAI1 171301Z 21006KT 02/00 A3006 RMK A01 T002400-0  RH  084%=      5-min Rain = 0
KAI1 171302Z 21006KT 02/M00 A3006 RMK A01 T00231001  RH  084%=      5-min Rain = 0
KAI1 171303Z 22006KT 02/M00 A3005 RMK A01 T00221001  RH  085%=      5-min Rain = 0
KAI1 171304Z 22006KT 02/M00 A3005 RMK A01 T00221001  RH  085%=      5-min Rain = 0
KAI1 171305Z 22006KT 02/M00 A3005 RMK A01 T00211001  RH  085%=      5-min Rain = 0
KAI1 171306Z 22007KT 02/M00 A3005 RMK A01 T00211001  RH  086%=      5-min Rain = 0
KAI1 171307Z 22007KT 02/M00 A3005 RMK A01 T00201001  RH  086%=      5-min Rain = 0
KAI1 171308Z 22007KT 02/M00 A3005 RMK A01 T00201001  RH  086%=      5-min Rain = 0
KAI1 171309Z 22007KT 02/00 A3005 RMK A01 T002000-0  RH  087%=      5-min Rain = 0
KAI1 171310Z 22007KT 02/00 A3006 RMK A01 T002000-0  RH  087%=      5-min Rain = 0
KAI1 171311Z 22008KT 02/00 A3005 RMK A01 T002000-0  RH  087%=      5-min Rain = 0
KAI1 171312Z 22008KT 02/00 A3005 RMK A01 T002000-0  RH  087%=      5-min Rain = 0
KAI1 171313Z 22008KT 02/00 A3005 RMK A01 T00210001  RH  087%=      5-min Rain = 0
KAI1 171314Z 22008KT 02/00 A3005 RMK A01 T00210001  RH  086%=      5-min Rain = 0
KAI1 171315Z 22008KT 02/00 A3005 RMK A01 T00220002  RH  086%=      5-min Rain = 0
KAI1 171316Z 22008KT 02/00 A3005 RMK A01 T00230002  RH  086%=      5-min Rain = 0
KAI1 171317Z 22008KT 02/00 A3005 RMK A01 T00240003  RH  086%=      5-min Rain = 0
KAI1 171318Z 22008KT 03/00 A3005 RMK A01 T00250003  RH  085%=      5-min Rain = 0
KAI1 171319Z 22008KT 03/00 A3006 RMK A01 T00260004  RH  085%=      5-min Rain = 0
KAI1 171320Z 23008KT 03/01 A3006 RMK A01 T00280005  RH  085%=      5-min Rain = 0
KAI1 171321Z 23008KT 03/01 A3006 RMK A01 T00300006  RH  084%=      5-min Rain = 0
KAI1 171322Z 23008KT 03/01 A3006 RMK A01 T00310007  RH  084%=      5-min Rain = 0
KAI1 171323Z 23007KT 03/01 A3006 RMK A01 T00320008  RH  084%=      5-min Rain = 0
KAI1 171324Z 23007KT 03/01 A3006 RMK A01 T00340009  RH  084%=      5-min Rain = 0
KAI1 171325Z 24006KT 04/01 A3006 RMK A01 T00350010  RH  084%=      5-min Rain = 0
KAI1 171326Z 23006KT 04/01 A3006 RMK A01 T00360010  RH  083%=      5-min Rain = 0
KAI1 171327Z 24006KT 04/01 A3006 RMK A01 T00370011  RH  083%=      5-min Rain = 0
KAI1 171328Z 24006KT 04/01 A3006 RMK A01 T00380012  RH  083%=      5-min Rain = 0
KAI1 171329Z 24006KT 04/01 A3006 RMK A01 T00390012  RH  083%=      5-min Rain = 0
KAI1 171330Z 24006KT 04/01 A3006 RMK A01 T00410013  RH  082%=      5-min Rain = 0
KAI1 171331Z 24006KT 04/01 A3006 RMK A01 T00420014  RH  082%=      5-min Rain = 0
KAI1 171332Z 24006KT 04/02 A3006 RMK A01 T00430015  RH  082%=      5-min Rain = 0
KAI1 171333Z 24006KT 04/02 A3006 RMK A01 T00440015  RH  081%=      5-min Rain = 0
KAI1 171334Z 24006KT 05/02 A3006 RMK A01 T00450015  RH  081%=      5-min Rain = 0
KAI1 171335Z 23006KT 05/02 A3006 RMK A01 T00460016  RH  081%=      5-min Rain = 0
KAI1 171336Z 23006KT 05/02 A3006 RMK A01 T00470016  RH  080%=      5-min Rain = 0
KAI1 171337Z 23006KT 05/02 A3006 RMK A01 T00480016  RH  080%=      5-min Rain = 0
KAI1 171338Z 23006KT 05/02 A3006 RMK A01 T00490016  RH  079%=      5-min Rain = 0
KAI1 171339Z 23006KT 05/02 A3006 RMK A01 T00500017  RH  079%=      5-min Rain = 0
KAI1 171340Z 23006KT 05/02 A3006 RMK A01 T00510018  RH  079%=      5-min Rain = 0
KAI1 171341Z 22006KT 05/02 A3006 RMK A01 T00520018  RH  079%=      5-min Rain = 0
KAI1 171342Z 22007KT 05/02 A3006 RMK A01 T00530019  RH  078%=      5-min Rain = 0
KAI1 171343Z 22007KT 05/02 A3006 RMK A01 T00540018  RH  078%=      5-min Rain = 0
KAI1 171344Z 22007KT 06/02 A3006 RMK A01 T00550019  RH  078%=      5-min Rain = 0
KAI1 171345Z 22006KT 06/02 A3006 RMK A01 T00560020  RH  078%=      5-min Rain = 0
KAI1 171346Z 22006KT 06/02 A3006 RMK A01 T00560020  RH  077%=      5-min Rain = 0
KAI1 171347Z 22006KT 06/02 A3006 RMK A01 T00580021  RH  077%=      5-min Rain = 0
KAI1 171348Z 22006KT 06/02 A3006 RMK A01 T00590021  RH  077%=      5-min Rain = 0
KAI1 171349Z 22006KT 06/02 A3006 RMK A01 T00600021  RH  076%=      5-min Rain = 0
KAI1 171350Z 23005KT 06/02 A3006 RMK A01 T00610022  RH  076%=      5-min Rain = 0
KAI1 171351Z 23006KT 06/02 A3006 RMK A01 T00630024  RH  076%=      5-min Rain = 0
KAI1 171352Z 23006KT 06/02 A3006 RMK A01 T00640024  RH  075%=      5-min Rain = 0
KAI1 171353Z 23006KT 07/02 A3006 RMK A01 T00660024  RH  075%=      5-min Rain = 0
KAI1 171354Z 23005KT 07/03 A3006 RMK A01 T00670025  RH  074%=      5-min Rain = 0
KAI1 171355Z 23006KT 07/03 A3006 RMK A01 T00680026  RH  074%=      5-min Rain = 0
KAI1 171356Z 23006KT 07/03 A3006 RMK A01 T00690026  RH  074%=      5-min Rain = 0
KAI1 171357Z 22006KT 07/03 A3006 RMK A01 T00700026  RH  073%=      5-min Rain = 0
KAI1 171358Z 22005KT 07/03 A3006 RMK A01 T00710026  RH  073%=      5-min Rain = 0
KAI1 171359Z 22006KT 07/03 A3006 RMK A01 T00720026  RH  073%=      5-min Rain = 0
KAI1 171400Z 22007KT 07/03 A3006 RMK A01 T00730027  RH  073%=      5-min Rain = 0
KAI1 171401Z 22006KT 07/03 A3007 RMK A01 T00740027  RH  072%=      5-min Rain = 0
KAI1 171402Z 22005KT 08/03 A3007 RMK A01 T00750028  RH  072%=      5-min Rain = 0
KAI1 171403Z 22006KT 08/03 A3007 RMK A01 T00750030  RH  073%=      5-min Rain = 0
KAI1 171404Z 22008KT 08/03 A3007 RMK A01 T00770028  RH  071%=      5-min Rain = 0
KAI1 171405Z 22007KT 08/03 A3007 RMK A01 T00770028  RH  071%=      5-min Rain = 0
KAI1 171406Z 22006KT 08/03 A3007 RMK A01 T00780030  RH  071%=      5-min Rain = 0
KAI1 171407Z 22007KT 08/03 A3007 RMK A01 T00790030  RH  071%=      5-min Rain = 0
KAI1 171408Z 22007KT 08/03 A3007 RMK A01 T00800030  RH  071%=      5-min Rain = 0
KAI1 171409Z 22007KT 08/03 A3007 RMK A01 T00810031  RH  071%=      5-min Rain = 0
KAI1 171410Z 22007KT 08/03 A3007 RMK A01 T00820032  RH  071%=      5-min Rain = 0
KAI1 171411Z 22007KT 08/03 A3007 RMK A01 T00840033  RH  070%=      5-min Rain = 0
KAI1 171412Z 22008KT 09/03 A3007 RMK A01 T00860034  RH  070%=      5-min Rain = 0
KAI1 171413Z 21007KT 09/04 A3007 RMK A01 T00870035  RH  069%=      5-min Rain = 0
KAI1 171414Z 22007KT 09/04 A3007 RMK A01 T00890036  RH  069%=      5-min Rain = 0
KAI1 171415Z 22008KT 09/04 A3007 RMK A01 T00910036  RH  069%=      5-min Rain = 0
KAI1 171416Z 22007KT 09/04 A3007 RMK A01 T00920035  RH  068%=      5-min Rain = 0
KAI1 171417Z 23006KT 09/04 A3007 RMK A01 T00940036  RH  067%=      5-min Rain = 0
KAI1 171418Z 23007KT 09/04 A3007 RMK A01 T00940038  RH  068%=      5-min Rain = 0
KAI1 171419Z 23006KT 10/04 A3007 RMK A01 T00960037  RH  067%=      5-min Rain = 0
KAI1 171420Z 22007KT 10/04 A3007 RMK A01 T00970039  RH  067%=      5-min Rain = 0
KAI1 171421Z 23008KT 10/04 A3007 RMK A01 T00990039  RH  066%=      5-min Rain = 0
KAI1 171422Z 22006KT 10/04 A3007 RMK A01 T01000039  RH  066%=      5-min Rain = 0
KAI1 171423Z 23006KT 10/04 A3007 RMK A01 T01010041  RH  066%=      5-min Rain = 0
KAI1 171424Z 22008KT 10/04 A3007 RMK A01 T01040042  RH  065%=      5-min Rain = 0
KAI1 171425Z 22007KT 10/04 A3007 RMK A01 T01040040  RH  064%=      5-min Rain = 0
KAI1 171426Z 22008KT 11/04 A3007 RMK A01 T01070043  RH  065%=      5-min Rain = 0
KAI1 171427Z 22008KT 11/04 A3007 RMK A01 T01090044  RH  064%=      5-min Rain = 0
KAI1 171428Z 22009KT 11/04 A3007 RMK A01 T01110043  RH  063%=      5-min Rain = 0
KAI1 171429Z 22009KT 11/04 A3007 RMK A01 T01110041  RH  062%=      5-min Rain = 0
KAI1 171430Z 22010KT 11/04 A3007 RMK A01 T01120041  RH  062%=      5-min Rain = 0
KAI1 171431Z 21009KT 11/04 A3007 RMK A01 T01120042  RH  062%=      5-min Rain = 0
KAI1 171432Z 22010KT 11/04 A3007 RMK A01 T01140043  RH  062%=      5-min Rain = 0
KAI1 171433Z 22010KT 12/04 A3007 RMK A01 T01160043  RH  061%=      5-min Rain = 0
KAI1 171434Z 22011KT 12/04 A3007 RMK A01 T01160042  RH  060%=      5-min Rain = 0
KAI1 171435Z 22010KT 12/04 A3007 RMK A01 T01170043  RH  060%=      5-min Rain = 0
KAI1 171436Z 22009KT 12/04 A3007 RMK A01 T01190044  RH  060%=      5-min Rain = 0
KAI1 171437Z 21008KT 12/05 A3007 RMK A01 T01210047  RH  061%=      5-min Rain = 0
KAI1 171438Z 22007KT 12/05 A3007 RMK A01 T01230047  RH  060%=      5-min Rain = 0
KAI1 171439Z 22007KT 13/05 A3008 RMK A01 T01250048  RH  060%=      5-min Rain = 0
KAI1 171440Z 21009KT 13/05 A3008 RMK A01 T01260048  RH  059%=      5-min Rain = 0
KAI1 171441Z 22010KT 13/05 A3007 RMK A01 T01260047  RH  058%=      5-min Rain = 0
KAI1 171442Z 22011KT 13/05 A3007 RMK A01 T01260046  RH  058%=      5-min Rain = 0
KAI1 171443Z 22010KT 13/05 A3007 RMK A01 T01270046  RH  058%=      5-min Rain = 0
KAI1 171444Z 22011KT 13/05 A3007 RMK A01 T01270047  RH  058%=      5-min Rain = 0
KAI1 171445Z 22010KT 13/05 A3008 RMK A01 T01280048  RH  058%=      5-min Rain = 0
KAI1 171446Z 21008KT 13/05 A3007 RMK A01 T01290048  RH  058%=      5-min Rain = 0
KAI1 171447Z 22010KT 13/05 A3007 RMK A01 T01300050  RH  058%=      5-min Rain = 0
KAI1 171448Z 21009KT 13/05 A3008 RMK A01 T01310050  RH  058%=      5-min Rain = 0
KAI1 171449Z 21011KT 13/05 A3007 RMK A01 T01330051  RH  057%=      5-min Rain = 0
KAI1 171450Z 21012KT 14/05 A3007 RMK A01 T01350049  RH  056%=      5-min Rain = 0
KAI1 171451Z 22011KT 14/05 A3007 RMK A01 T01350049  RH  056%=      5-min Rain = 0
KAI1 171452Z 22010KT 14/05 A3007 RMK A01 T01350050  RH  056%=      5-min Rain = 0
KAI1 171453Z 22013KT 14/05 A3007 RMK A01 T01360051  RH  056%=      5-min Rain = 0
KAI1 171454Z 22013KT 14/05 A3008 RMK A01 T01370049  RH  055%=      5-min Rain = 0
KAI1 171455Z 22010KT 14/05 A3008 RMK A01 T01370050  RH  056%=      5-min Rain = 0
KAI1 171456Z 22013KT 14/05 A3008 RMK A01 T01390051  RH  055%=      5-min Rain = 0
KAI1 171457Z 23012KT 14/05 A3008 RMK A01 T01390050  RH  055%=      5-min Rain = 0
KAI1 171458Z 23013KT 14/05 A3008 RMK A01 T01400051  RH  055%=      5-min Rain = 0
KAI1 171459Z 24012KT 14/05 A3008 RMK A01 T01410050  RH  054%=      5-min Rain = 0
KAI1 171500Z 24012KT 14/05 A3008 RMK A01 T01420049  RH  054%=      5-min Rain = 0
KAI1 171501Z 24014KT 14/05 A3008 RMK A01 T01440050  RH  053%=      5-min Rain = 0
KAI1 171502Z 23014KT 14/05 A3008 RMK A01 T01440049  RH  053%=      5-min Rain = 0
KAI1 171503Z 23013KT 14/05 A3008 RMK A01 T01440048  RH  053%=      5-min Rain = 0
KAI1 171504Z 23011KT 14/05 A3008 RMK A01 T01440050  RH  053%=      5-min Rain = 0
KAI1 171505Z 24012KT 15/05 A3008 RMK A01 T01450050  RH  053%=      5-min Rain = 0
KAI1 171506Z 23011KT 15/05 A3008 RMK A01 T01450050  RH  053%=      5-min Rain = 0
KAI1 171507Z 24014KT 14/05 A3008 RMK A01 T01440049  RH  053%=      5-min Rain = 0
KAI1 171508Z 24014KT 14/05 A3008 RMK A01 T01440048  RH  052%=      5-min Rain = 0
KAI1 171509Z 23013KT 14/05 A3008 RMK A01 T01440048  RH  052%=      5-min Rain = 0
KAI1 171510Z 23013KT 15/05 A3008 RMK A01 T01450047  RH  052%=      5-min Rain = 0
KAI1 171511Z 23014KT 15/05 A3008 RMK A01 T01460045  RH  051%=      5-min Rain = 0
KAI1 171512Z 23012G17KT 15/04 A3008 RMK A01 T01450044  RH  051%=      5-min Rain = 0
KAI1 171513Z 24014KT 15/04 A3008 RMK A01 T01460042  RH  050%=      5-min Rain = 0
KAI1 171514Z 23013KT 15/04 A3007 RMK A01 T01460042  RH  050%=      5-min Rain = 0
KAI1 171515Z 23011KT 15/04 A3007 RMK A01 T01460043  RH  050%=      5-min Rain = 0
KAI1 171516Z 24012KT 15/05 A3007 RMK A01 T01480045  RH  050%=      5-min Rain = 0
KAI1 171517Z 24012KT 15/04 A3007 RMK A01 T01490044  RH  049%=      5-min Rain = 0
KAI1 171518Z 23011KT 15/04 A3007 RMK A01 T01490043  RH  049%=      5-min Rain = 0
KAI1 171519Z 24009KT 15/05 A3007 RMK A01 T01500045  RH  050%=      5-min Rain = 0
KAI1 171520Z 23008KT 15/05 A3007 RMK A01 T01520048  RH  050%=      5-min Rain = 0
KAI1 171521Z 24010KT 15/05 A3007 RMK A01 T01540047  RH  049%=      5-min Rain = 0
KAI1 171522Z 24012KT 15/05 A3007 RMK A01 T01540046  RH  048%=      5-min Rain = 0
KAI1 171523Z 23014KT 15/04 A3007 RMK A01 T01540044  RH  048%=      5-min Rain = 0
KAI1 171524Z 23011KT 15/05 A3007 RMK A01 T01530045  RH  048%=      5-min Rain = 0
KAI1 171525Z 23012KT 15/04 A3007 RMK A01 T01530044  RH  048%=      5-min Rain = 0
KAI1 171526Z 23012KT 15/04 A3007 RMK A01 T01520044  RH  048%=      5-min Rain = 0
KAI1 171527Z 23010KT 16/05 A3007 RMK A01 T01550048  RH  049%=      5-min Rain = 0
KAI1 171528Z 23012KT 16/05 A3007 RMK A01 T01590048  RH  048%=      5-min Rain = 0
KAI1 171529Z 23012KT 16/04 A3007 RMK A01 T01590044  RH  046%=      5-min Rain = 0
KAI1 171530Z 23011KT 16/04 A3007 RMK A01 T01580044  RH  047%=      5-min Rain = 0
KAI1 171531Z 23012KT 16/04 A3007 RMK A01 T01580044  RH  047%=      5-min Rain = 0
KAI1 171532Z 24009KT 16/05 A3007 RMK A01 T01600045  RH  047%=      5-min Rain = 0
KAI1 171533Z 24011KT 16/05 A3007 RMK A01 T01620045  RH  046%=      5-min Rain = 0
KAI1 171534Z 24011KT 16/05 A3007 RMK A01 T01630045  RH  046%=      5-min Rain = 0
KAI1 171535Z 24012KT 16/04 A3007 RMK A01 T01640043  RH  045%=      5-min Rain = 0
KAI1 171536Z 23012KT 16/04 A3007 RMK A01 T01640041  RH  044%=      5-min Rain = 0
KAI1 171537Z 24012KT 17/04 A3007 RMK A01 T01650041  RH  044%=      5-min Rain = 0
KAI1 171538Z 24011KT 17/04 A3007 RMK A01 T01660041  RH  043%=      5-min Rain = 0
KAI1 171539Z 24012KT 17/04 A3007 RMK A01 T01660042  RH  044%=      5-min Rain = 0
KAI1 171540Z 23010KT 17/04 A3007 RMK A01 T01660042  RH  044%=      5-min Rain = 0
KAI1 171541Z 24011KT 17/04 A3007 RMK A01 T01690044  RH  043%=      5-min Rain = 0
KAI1 171542Z 24011KT 17/04 A3007 RMK A01 T01720043  RH  043%=      5-min Rain = 0
KAI1 171543Z 24011KT 17/04 A3007 RMK A01 T01730041  RH  042%=      5-min Rain = 0
KAI1 171544Z 23014KT 17/04 A3007 RMK A01 T01710040  RH  042%=      5-min Rain = 0
KAI1 171545Z 23012KT 17/04 A3007 RMK A01 T01710038  RH  041%=      5-min Rain = 0
KAI1 171546Z 23011KT 17/04 A3007 RMK A01 T01700038  RH  041%=      5-min Rain = 0
KAI1 171547Z 23013KT 17/04 A3006 RMK A01 T01710039  RH  042%=      5-min Rain = 0
KAI1 171548Z 23014KT 17/04 A3006 RMK A01 T01710038  RH  041%=      5-min Rain = 0
KAI1 171549Z 24012KT 17/04 A3006 RMK A01 T01710039  RH  041%=      5-min Rain = 0
KAI1 171550Z 23013KT 17/04 A3006 RMK A01 T01720039  RH  041%=      5-min Rain = 0
KAI1 171551Z 24011KT 17/04 A3006 RMK A01 T01720040  RH  041%=      5-min Rain = 0
KAI1 171552Z 23013KT 17/04 A3006 RMK A01 T01730041  RH  042%=      5-min Rain = 0
KAI1 171553Z 23012KT 17/04 A3006 RMK A01 T01740040  RH  041%=      5-min Rain = 0
KAI1 171554Z 23012KT 18/04 A3006 RMK A01 T01750042  RH  041%=      5-min Rain = 0
KAI1 171555Z 24012KT 18/04 A3006 RMK A01 T01760041  RH  041%=      5-min Rain = 0
KAI1 171556Z 23011KT 18/04 A3006 RMK A01 T01760041  RH  041%=      5-min Rain = 0
KAI1 171557Z 23011KT 18/04 A3006 RMK A01 T01780041  RH  040%=      5-min Rain = 0
KAI1 171558Z 22011KT 18/04 A3006 RMK A01 T01800043  RH  040%=      5-min Rain = 0
KAI1 171559Z 22010KT 18/04 A3006 RMK A01 T01810043  RH  040%=      5-min Rain = 0
KAI1 171600Z 23010KT 18/04 A3006 RMK A01 T01820041  RH  039%=      5-min Rain = 0
KAI1 171601Z 22009KT 18/04 A3006 RMK A01 T01830040  RH  039%=      5-min Rain = 0
KAI1 171602Z 24013KT 18/04 A3006 RMK A01 T01840041  RH  039%=      5-min Rain = 0
KAI1 171603Z 24013KT 19/04 A3006 RMK A01 T01850039  RH  038%=      5-min Rain = 0
KAI1 171604Z 24014KT 19/04 A3005 RMK A01 T01850039  RH  038%=      5-min Rain = 0
KAI1 171605Z 24011KT 19/04 A3005 RMK A01 T01860039  RH  038%=      5-min Rain = 0
KAI1 171606Z 24009KT 19/04 A3005 RMK A01 T01850041  RH  038%=      5-min Rain = 0
KAI1 171607Z 23009KT 19/04 A3005 RMK A01 T01870041  RH  038%=      5-min Rain = 0
KAI1 171608Z 23010KT 19/04 A3005 RMK A01 T01890038  RH  037%=      5-min Rain = 0
KAI1 171609Z 24013KT 19/04 A3005 RMK A01 T01890036  RH  036%=      5-min Rain = 0
KAI1 171610Z 23013KT 19/04 A3005 RMK A01 T01900035  RH  036%=      5-min Rain = 0
KAI1 171611Z 23012KT 19/04 A3005 RMK A01 T01910036  RH  036%=      5-min Rain = 0
KAI1 171612Z 22013KT 19/04 A3005 RMK A01 T01910036  RH  036%=      5-min Rain = 0
KAI1 171613Z 22011KT 19/04 A3004 RMK A01 T01910038  RH  036%=      5-min Rain = 0
KAI1 171614Z 22012KT 19/04 A3004 RMK A01 T01920040  RH  036%=      5-min Rain = 0
KAI1 171615Z 22013KT 19/04 A3004 RMK A01 T01940038  RH  036%=      5-min Rain = 0
KAI1 171616Z 22013KT 19/04 A3004 RMK A01 T01930035  RH  035%=      5-min Rain = 0
KAI1 171617Z 24015KT 19/04 A3004 RMK A01 T01920037  RH  036%=      5-min Rain = 0
KAI1 171618Z 23014KT 19/04 A3004 RMK A01 T01930035  RH  035%=      5-min Rain = 0
KAI1 171619Z 23014KT 19/04 A3004 RMK A01 T01930037  RH  036%=      5-min Rain = 0
KAI1 171620Z 23014KT 19/04 A3004 RMK A01 T01940038  RH  036%=      5-min Rain = 0
KAI1 171621Z 23013KT 19/04 A3004 RMK A01 T01940036  RH  035%=      5-min Rain = 0
KAI1 171622Z 22012KT 19/04 A3004 RMK A01 T01930038  RH  036%=      5-min Rain = 0
KAI1 171623Z 22013KT 20/04 A3004 RMK A01 T01950039  RH  036%=      5-min Rain = 0
KAI1 171624Z 23013KT 20/04 A3004 RMK A01 T01960038  RH  035%=      5-min Rain = 0
KAI1 171625Z 23014KT 20/04 A3004 RMK A01 T01960037  RH  035%=      5-min Rain = 0
KAI1 171626Z 24011KT 20/04 A3004 RMK A01 T01960038  RH  035%=      5-min Rain = 0
KAI1 171627Z 24013KT 20/04 A3004 RMK A01 T01970040  RH  035%=      5-min Rain = 0
KAI1 171628Z 24014KT 20/04 A3004 RMK A01 T01990040  RH  035%=      5-min Rain = 0
KAI1 171629Z 23010KT 20/04 A3004 RMK A01 T02000041  RH  035%=      5-min Rain = 0
KAI1 171630Z 23011KT 20/04 A3004 RMK A01 T02020041  RH  035%=      5-min Rain = 0
KAI1 171631Z 24011KT 20/04 A3004 RMK A01 T02030039  RH  034%=      5-min Rain = 0
KAI1 171632Z 23013KT 20/04 A3003 RMK A01 T02020038  RH  034%=      5-min Rain = 0
KAI1 171633Z 22011KT 20/04 A3003 RMK A01 T02010038  RH  034%=      5-min Rain = 0
KAI1 171634Z 23011KT 20/04 A3003 RMK A01 T02020040  RH  034%=      5-min Rain = 0
KAI1 171635Z 21011KT 20/04 A3003 RMK A01 T02030040  RH  034%=      5-min Rain = 0
KAI1 171636Z 22009KT 21/04 A3003 RMK A01 T02050040  RH  034%=      5-min Rain = 0
KAI1 171637Z 23013KT 21/04 A3003 RMK A01 T02060039  RH  033%=      5-min Rain = 0
KAI1 171638Z 23011KT 20/04 A3003 RMK A01 T02040037  RH  033%=      5-min Rain = 0
KAI1 171639Z 22011KT 20/04 A3003 RMK A01 T02030036  RH  033%=      5-min Rain = 0
KAI1 171640Z 23013KT 20/04 A3003 RMK A01 T02020037  RH  034%=      5-min Rain = 0
KAI1 171641Z 23015KT 20/04 A3003 RMK A01 T02040036  RH  033%=      5-min Rain = 0
KAI1 171642Z 22013KT 20/04 A3003 RMK A01 T02040036  RH  033%=      5-min Rain = 0
KAI1 171643Z 22012KT 20/04 A3003 RMK A01 T02040036  RH  033%=      5-min Rain = 0
KAI1 171644Z 21011KT 20/04 A3003 RMK A01 T02040035  RH  033%=      5-min Rain = 0
KAI1 171645Z 23010KT 21/04 A3003 RMK A01 T02050037  RH  033%=      5-min Rain = 0
KAI1 171651Z 20013KT 21/04 A3003 RMK A01 T02090036  RH  032%=      5-min Rain = 0
KAI1 171652Z 20013KT 21/04 A3003 RMK A01 T02090037  RH  032%=      5-min Rain = 0
KAI1 171653Z 21010KT 21/04 A3003 RMK A01 T02090035  RH  032%=      5-min Rain = 0
KAI1 171654Z 22009KT 21/04 A3003 RMK A01 T02100036  RH  032%=      5-min Rain = 0
KAI1 171655Z 22012KT 21/04 A3003 RMK A01 T02110039  RH  032%=      5-min Rain = 0
KAI1 171656Z 23014KT 21/04 A3003 RMK A01 T02130037  RH  031%=      5-min Rain = 0
KAI1 171657Z 22014KT 21/03 A3003 RMK A01 T02120034  RH  031%=      5-min Rain = 0
KAI1 171658Z 22012KT 21/03 A3003 RMK A01 T02100034  RH  031%=      5-min Rain = 0
KAI1 171659Z 23012KT 21/03 A3003 RMK A01 T02090034  RH  032%=      5-min Rain = 0
KAI1 171700Z 22010G15KT 21/04 A3003 RMK A01 T02090037  RH  032%=      5-min Rain = 0
KAI1 171701Z 20011KT 21/04 A3003 RMK A01 T02120041  RH  033%=      5-min Rain = 0
KAI1 171702Z 20012G17KT 22/04 A3003 RMK A01 T02150041  RH  032%=      5-min Rain = 0
KAI1 171703Z 21011KT 22/04 A3003 RMK A01 T02170042  RH  032%=      5-min Rain = 0
KAI1 171704Z 20012KT 22/04 A3003 RMK A01 T02180042  RH  032%=      5-min Rain = 0
KAI1 171705Z 20010KT 22/04 A3003 RMK A01 T02190040  RH  031%=      5-min Rain = 0
KAI1 171706Z 21012KT 22/04 A3002 RMK A01 T02180042  RH  031%=      5-min Rain = 0
KAI1 171707Z 20012KT 22/04 A3002 RMK A01 T02180042  RH  032%=      5-min Rain = 0
KAI1 171708Z 21010KT 22/04 A3002 RMK A01 T02160040  RH  032%=      5-min Rain = 0
KAI1 171709Z 22010KT 22/04 A3002 RMK A01 T02170043  RH  032%=      5-min Rain = 0
KAI1 171710Z 22013KT 22/04 A3002 RMK A01 T02200039  RH  030%=      5-min Rain = 0
KAI1 171711Z 23012KT 22/04 A3002 RMK A01 T02210039  RH  030%=      5-min Rain = 0
KAI1 171712Z 22011KT 22/04 A3002 RMK A01 T02200039  RH  030%=      5-min Rain = 0
KAI1 171713Z 21010KT 22/04 A3003 RMK A01 T02220041  RH  031%=      5-min Rain = 0
KAI1 171714Z 20009KT 22/04 A3003 RMK A01 T02230039  RH  030%=      5-min Rain = 0
KAI1 171715Z 22009G15KT 22/04 A3003 RMK A01 T02230042  RH  031%=      5-min Rain = 0
KAI1 171716Z 23011KT 22/04 A3002 RMK A01 T02240042  RH  031%=      5-min Rain = 0
KAI1 171717Z 22011KT 22/04 A3002 RMK A01 T02230041  RH  030%=      5-min Rain = 0
KAI1 171718Z 23012KT 22/04 A3002 RMK A01 T02220041  RH  031%=      5-min Rain = 0
KAI1 171719Z 22012KT 22/04 A3002 RMK A01 T02220041  RH  031%=      5-min Rain = 0
KAI1 171720Z 24011KT 22/04 A3002 RMK A01 T02220040  RH  030%=      5-min Rain = 0
KAI1 171721Z 21012KT 22/04 A3002 RMK A01 T02220042  RH  031%=      5-min Rain = 0
KAI1 171722Z 22016KT 22/04 A3002 RMK A01 T02230040  RH  030%=      5-min Rain = 0
KAI1 171723Z 23013KT 22/04 A3002 RMK A01 T02220039  RH  030%=      5-min Rain = 0
KAI1 171724Z 23010KT 22/04 A3002 RMK A01 T02220038  RH  030%=      5-min Rain = 0
KAI1 171725Z 23009KT 22/04 A3002 RMK A01 T02210037  RH  030%=      5-min Rain = 0
KAI1 171726Z 22010KT 22/04 A3002 RMK A01 T02210040  RH  031%=      5-min Rain = 0
KAI1 171727Z 22013KT 22/04 A3002 RMK A01 T02230038  RH  030%=      5-min Rain = 0
KAI1 171728Z 23011KT 22/04 A3002 RMK A01 T02240037  RH  030%=      5-min Rain = 0
KAI1 171729Z 23012KT 23/04 A3002 RMK A01 T02250041  RH  030%=      5-min Rain = 0
KAI1 171730Z 22011KT 23/04 A3002 RMK A01 T02250040  RH  030%=      5-min Rain = 0
KAI1 171731Z 22011KT 22/04 A3002 RMK A01 T02230037  RH  029%=      5-min Rain = 0
KAI1 171732Z 22013G18KT 22/04 A3002 RMK A01 T02240038  RH  030%=      5-min Rain = 0
KAI1 171733Z 22012KT 23/04 A3002 RMK A01 T02270036  RH  029%=      5-min Rain = 0
KAI1 171734Z 22011KT 23/04 A3002 RMK A01 T02280038  RH  029%=      5-min Rain = 0
KAI1 171735Z 22010KT 23/04 A3002 RMK A01 T02260038  RH  029%=      5-min Rain = 0
KAI1 171736Z 24012KT 23/04 A3002 RMK A01 T02260039  RH  030%=      5-min Rain = 0
KAI1 171737Z 22012KT 23/04 A3002 RMK A01 T02260040  RH  030%=      5-min Rain = 0
KAI1 171738Z 22011KT 23/04 A3002 RMK A01 T02280042  RH  030%=      5-min Rain = 0
KAI1 171739Z 20013KT 23/04 A3002 RMK A01 T02300040  RH  029%=      5-min Rain = 0
KAI1 171740Z 21014KT 23/03 A3001 RMK A01 T02300033  RH  028%=      5-min Rain = 0
KAI1 171741Z 22013KT 23/03 A3001 RMK A01 T02280033  RH  028%=      5-min Rain = 0
KAI1 171742Z 21011KT 23/03 A3001 RMK A01 T02270034  RH  028%=      5-min Rain = 0
KAI1 171743Z 21013KT 23/03 A3001 RMK A01 T02270034  RH  028%=      5-min Rain = 0
KAI1 171744Z 20013KT 23/03 A3001 RMK A01 T02290034  RH  028%=      5-min Rain = 0
KAI1 171745Z 22010KT 23/04 A3001 RMK A01 T02320038  RH  028%=      5-min Rain = 0
KAI1 171746Z 22009KT 23/04 A3001 RMK A01 T02340038  RH  028%=      5-min Rain = 0
KAI1 171747Z 21014KT 23/04 A3001 RMK A01 T02340036  RH  028%=      5-min Rain = 0
KAI1 171748Z 21013KT 23/03 A3001 RMK A01 T02320031  RH  027%=      5-min Rain = 0
KAI1 171749Z 20012KT 23/03 A3001 RMK A01 T02290034  RH  028%=      5-min Rain = 0
KAI1 171750Z 21011KT 23/04 A3001 RMK A01 T02280035  RH  028%=      5-min Rain = 0
KAI1 171751Z 21011KT 23/04 A3001 RMK A01 T02290035  RH  028%=      5-min Rain = 0
KAI1 171752Z 20012KT 23/04 A3001 RMK A01 T02300035  RH  028%=      5-min Rain = 0
KAI1 171753Z 21011KT 23/04 A3001 RMK A01 T02310035  RH  028%=      5-min Rain = 0
KAI1 171754Z 22011KT 23/04 A3001 RMK A01 T02330037  RH  028%=      5-min Rain = 0
KAI1 171755Z 22009KT 23/04 A3001 RMK A01 T02330035  RH  027%=      5-min Rain = 0
KAI1 171756Z 22012G17KT 23/04 A30 RMK A01 T02330037  RH  028%=      5-min Rain = 0
KAI1 171757Z 21013KT 23/03 A30 RMK A01 T02340033  RH  027%=      5-min Rain = 0
KAI1 171758Z 22010KT 23/03 A30 RMK A01 T02320033  RH  027%=      5-min Rain = 0
KAI1 171759Z 23010KT 23/03 A30 RMK A01 T02300034  RH  028%=      5-min Rain = 0
KAI1 171800Z 21012KT 23/04 A30 RMK A01 T02290035  RH  028%=      5-min Rain = 0
KAI1 171801Z 20013KT 23/03 A30 RMK A01 T02300032  RH  027%=      5-min Rain = 0
KAI1 171802Z 19012KT 23/03 A30 RMK A01 T02310032  RH  027%=      5-min Rain = 0
KAI1 171803Z 21011KT 23/03 A30 RMK A01 T02340032  RH  027%=      5-min Rain = 0
KAI1 171804Z 21010KT 24/03 A30 RMK A01 T02360030  RH  026%=      5-min Rain = 0
KAI1 171805Z 20011KT 24/03 A30 RMK A01 T02360031  RH  026%=      5-min Rain = 0
KAI1 171806Z 22010KT 23/03 A30 RMK A01 T02340031  RH  026%=      5-min Rain = 0
KAI1 171807Z 22011KT 23/03 A30 RMK A01 T02330031  RH  027%=      5-min Rain = 0
KAI1 171808Z 20012KT 23/03 A30 RMK A01 T02340028  RH  026%=      5-min Rain = 0
KAI1 171809Z 22011KT 24/03 A30 RMK A01 T02350028  RH  026%=      5-min Rain = 0
KAI1 171810Z 22010KT 24/03 A30 RMK A01 T02360031  RH  026%=      5-min Rain = 0
KAI1 171811Z 24009KT 24/04 A30 RMK A01 T02350035  RH  027%=      5-min Rain = 0
KAI1 171812Z 23010G16KT 24/03 A30 RMK A01 T02350031  RH  026%=      5-min Rain = 0
KAI1 171813Z 21011KT 24/03 A30 RMK A01 T02360032  RH  026%=      5-min Rain = 0
KAI1 171814Z 20010KT 24/03 A30 RMK A01 T02390031  RH  026%=      5-min Rain = 0
KAI1 171815Z 21008KT 24/03 A2999 RMK A01 T02380030  RH  026%=      5-min Rain = 0
KAI1 171816Z 20012KT 24/03 A2999 RMK A01 T02380030  RH  026%=      5-min Rain = 0
KAI1 171817Z 19011KT 24/03 A2999 RMK A01 T02390027  RH  025%=      5-min Rain = 0
KAI1 171818Z 20012KT 24/03 A2999 RMK A01 T02390029  RH  025%=      5-min Rain = 0
KAI1 171819Z 21010KT 24/03 A2999 RMK A01 T02390029  RH  025%=      5-min Rain = 0
KAI1 171820Z 21012KT 24/03 A2999 RMK A01 T02380029  RH  026%=      5-min Rain = 0
KAI1 171821Z 22011KT 24/03 A2999 RMK A01 T02370030  RH  026%=      5-min Rain = 0
KAI1 171822Z 23011KT 24/03 A2999 RMK A01 T02400031  RH  026%=      5-min Rain = 0
KAI1 171823Z 23010KT 24/03 A2999 RMK A01 T02420034  RH  026%=      5-min Rain = 0
KAI1 171824Z 22011KT 24/03 A2999 RMK A01 T02410031  RH  025%=      5-min Rain = 0
KAI1 171825Z 24012KT 24/03 A2999 RMK A01 T02410034  RH  026%=      5-min Rain = 0
KAI1 171826Z 22011KT 24/03 A2999 RMK A01 T02400033  RH  026%=      5-min Rain = 0
KAI1 171827Z 21015KT 24/03 A2999 RMK A01 T02390025  RH  025%=      5-min Rain = 0
KAI1 171828Z 22010KT 24/02 A2999 RMK A01 T02390022  RH  024%=      5-min Rain = 0
KAI1 171829Z 21010KT 24/02 A2999 RMK A01 T02390022  RH  024%=      5-min Rain = 0
KAI1 171830Z 22015KT 24/03 A2999 RMK A01 T02380026  RH  025%=      5-min Rain = 0
KAI1 171831Z 22013KT 24/03 A2999 RMK A01 T02390026  RH  025%=      5-min Rain = 0
KAI1 171832Z 22012KT 24/03 A2999 RMK A01 T02390027  RH  025%=      5-min Rain = 0
KAI1 171833Z 21010KT 24/03 A2999 RMK A01 T02380027  RH  025%=      5-min Rain = 0
KAI1 171834Z 20014KT 24/03 A2998 RMK A01 T02400029  RH  025%=      5-min Rain = 0
KAI1 171835Z 19012KT 24/02 A2998 RMK A01 T02410024  RH  024%=      5-min Rain = 0
KAI1 171836Z 20011KT 24/02 A2998 RMK A01 T02400024  RH  024%=      5-min Rain = 0
KAI1 171837Z 20011KT 24/03 A2998 RMK A01 T02410025  RH  024%=      5-min Rain = 0
KAI1 171838Z 21012KT 24/03 A2998 RMK A01 T02410028  RH  025%=      5-min Rain = 0
KAI1 171839Z 21012KT 24/03 A2998 RMK A01 T02420027  RH  024%=      5-min Rain = 0
KAI1 171840Z 21012KT 24/03 A2998 RMK A01 T02410026  RH  025%=      5-min Rain = 0
KAI1 171841Z 21014KT 24/03 A2998 RMK A01 T02410026  RH  025%=      5-min Rain = 0
KAI1 171842Z 22014KT 24/02 A2998 RMK A01 T02410024  RH  024%=      5-min Rain = 0
KAI1 171843Z 21011KT 24/02 A2998 RMK A01 T02410024  RH  024%=      5-min Rain = 0
KAI1 171844Z 21009KT 24/03 A2998 RMK A01 T02400025  RH  024%=      5-min Rain = 0
KAI1 171845Z 20012KT 24/03 A2998 RMK A01 T02410030  RH  025%=      5-min Rain = 0
KAI1 171846Z 19014KT 24/03 A2998 RMK A01 T02420029  RH  025%=      5-min Rain = 0
KAI1 171847Z 20013KT 24/03 A2998 RMK A01 T02420029  RH  025%=      5-min Rain = 0
KAI1 171848Z 21011KT 24/03 A2998 RMK A01 T02400026  RH  025%=      5-min Rain = 0
KAI1 171849Z 21008G13KT 24/03 A2998 RMK A01 T02390028  RH  025%=      5-min Rain = 0
KAI1 171850Z 22011KT 24/03 A2998 RMK A01 T02420029  RH  025%=      5-min Rain = 0
KAI1 171851Z 21013KT 25/02 A2998 RMK A01 T02450021  RH  023%=      5-min Rain = 0
KAI1 171852Z 21011KT 24/02 A2998 RMK A01 T02440023  RH  023%=      5-min Rain = 0
KAI1 171853Z 21009KT 24/02 A2998 RMK A01 T02440023  RH  024%=      5-min Rain = 0
KAI1 171854Z 20009KT 24/03 A2997 RMK A01 T02440025  RH  024%=      5-min Rain = 0
KAI1 171855Z 21010KT 24/03 A2997 RMK A01 T02430027  RH  024%=      5-min Rain = 0
KAI1 171856Z 20011KT 24/03 A2997 RMK A01 T02430028  RH  025%=      5-min Rain = 0
KAI1 171857Z 21008KT 24/03 A2997 RMK A01 T02430027  RH  024%=      5-min Rain = 0
KAI1 171858Z 21007KT 24/03 A2997 RMK A01 T02430030  RH  025%=      5-min Rain = 0
KAI1 171859Z 19011KT 25/03 A2997 RMK A01 T02460032  RH  025%=      5-min Rain = 0
KAI1 171900Z 21011KT 25/03 A2997 RMK A01 T02470030  RH  024%=      5-min Rain = 0
KAI1 171901Z 22010KT 25/03 A2997 RMK A01 T02480027  RH  024%=      5-min Rain = 0
KAI1 171902Z 22012KT 25/03 A2997 RMK A01 T02490027  RH  024%=      5-min Rain = 0
KAI1 171903Z 22012KT 25/03 A2997 RMK A01 T02520027  RH  023%=      5-min Rain = 0
KAI1 171904Z 20009KT 25/03 A2997 RMK A01 T02520028  RH  023%=      5-min Rain = 0
KAI1 171905Z 19009KT 25/03 A2997 RMK A01 T02530025  RH  023%=      5-min Rain = 0
KAI1 171906Z 20009KT 25/03 A2997 RMK A01 T02500026  RH  023%=      5-min Rain = 0
KAI1 171907Z 20013G18KT 25/03 A2996 RMK A01 T02490027  RH  024%=      5-min Rain = 0
KAI1 171908Z 21014KT 25/02 A2996 RMK A01 T02510020  RH  022%=      5-min Rain = 0
KAI1 171909Z 20010KT 25/02 A2996 RMK A01 T02500017  RH  022%=      5-min Rain = 0
KAI1 171910Z 21009KT 25/02 A2996 RMK A01 T02480018  RH  022%=      5-min Rain = 0
KAI1 171911Z 22010KT 25/02 A2996 RMK A01 T02470022  RH  023%=      5-min Rain = 0
KAI1 171912Z 22014KT 25/02 A2996 RMK A01 T02490021  RH  023%=      5-min Rain = 0
KAI1 171913Z 22012KT 25/02 A2996 RMK A01 T02510020  RH  022%=      5-min Rain = 0
KAI1 171914Z 22014KT 25/02 A2996 RMK A01 T02520022  RH  022%=      5-min Rain = 0
KAI1 171915Z 21012KT 25/02 A2996 RMK A01 T02540015  RH  021%=      5-min Rain = 0
KAI1 171916Z 21013KT 25/02 A2996 RMK A01 T02540018  RH  021%=      5-min Rain = 0
KAI1 171917Z 22010KT 25/02 A2996 RMK A01 T02530021  RH  022%=      5-min Rain = 0
KAI1 171918Z 22011KT 25/03 A2996 RMK A01 T02540025  RH  023%=      5-min Rain = 0
KAI1 171919Z 20010KT 25/03 A2996 RMK A01 T02530026  RH  023%=      5-min Rain = 0
KAI1 171920Z 21010KT 25/03 A2996 RMK A01 T02530032  RH  024%=      5-min Rain = 0
KAI1 171921Z 21009KT 25/03 A2996 RMK A01 T02540033  RH  024%=      5-min Rain = 0
KAI1 171922Z 21011KT 26/03 A2996 RMK A01 T02570032  RH  023%=      5-min Rain = 0
KAI1 171923Z 22010KT 26/03 A2996 RMK A01 T02570030  RH  023%=      5-min Rain = 0
KAI1 171924Z 22011KT 26/03 A2995 RMK A01 T02560028  RH  023%=      5-min Rain = 0
KAI1 171925Z 23010KT 26/03 A2995 RMK A01 T02570027  RH  023%=      5-min Rain = 0
KAI1 171926Z 22011KT 26/03 A2995 RMK A01 T02580030  RH  023%=      5-min Rain = 0
KAI1 171927Z 21009KT 26/03 A2995 RMK A01 T02570030  RH  023%=      5-min Rain = 0
KAI1 171928Z 21012KT 26/03 A2995 RMK A01 T02570029  RH  023%=      5-min Rain = 0
KAI1 171929Z 23009KT 26/02 A2995 RMK A01 T02580024  RH  022%=      5-min Rain = 0
KAI1 171930Z 21010KT 26/02 A2995 RMK A01 T02570018  RH  021%=      5-min Rain = 0
KAI1 171931Z 21011KT 26/02 A2995 RMK A01 T02560019  RH  021%=      5-min Rain = 0
KAI1 171932Z 21013KT 26/03 A2995 RMK A01 T02550026  RH  023%=      5-min Rain = 0
KAI1 171933Z 21011KT 26/03 A2995 RMK A01 T02550028  RH  023%=      5-min Rain = 0
KAI1 171934Z 22011KT 26/03 A2995 RMK A01 T02570032  RH  023%=      5-min Rain = 0
KAI1 171935Z 22011KT 26/03 A2995 RMK A01 T02580028  RH  022%=      5-min Rain = 0
KAI1 171936Z 21012KT 26/03 A2995 RMK A01 T02580025  RH  022%=      5-min Rain = 0
KAI1 171937Z 21014KT 26/02 A2995 RMK A01 T02570020  RH  021%=      5-min Rain = 0
KAI1 171938Z 21013KT 26/02 A2995 RMK A01 T02550019  RH  022%=      5-min Rain = 0
KAI1 171939Z 23010KT 25/02 A2995 RMK A01 T02520022  RH  022%=      5-min Rain = 0
KAI1 171940Z 20009KT 25/03 A2995 RMK A01 T02520025  RH  023%=      5-min Rain = 0
KAI1 171941Z 21012KT 25/03 A2994 RMK A01 T02540028  RH  023%=      5-min Rain = 0
KAI1 171942Z 21011KT 25/03 A2994 RMK A01 T02530026  RH  023%=      5-min Rain = 0
KAI1 171943Z 19013G18KT 25/03 A2994 RMK A01 T02530029  RH  023%=      5-min Rain = 0
KAI1 171944Z 19011KT 25/03 A2994 RMK A01 T02540025  RH  023%=      5-min Rain = 0
KAI1 171945Z 20011KT 25/03 A2994 RMK A01 T02530026  RH  023%=      5-min Rain = 0
KAI1 171946Z 19010KT 25/03 A2994 RMK A01 T02540026  RH  023%=      5-min Rain = 0
KAI1 171947Z 21010KT 25/03 A2994 RMK A01 T02540027  RH  023%=      5-min Rain = 0
KAI1 171948Z 20013KT 26/03 A2994 RMK A01 T02550027  RH  023%=      5-min Rain = 0
KAI1 171949Z 20013KT 26/03 A2994 RMK A01 T02570027  RH  023%=      5-min Rain = 0
KAI1 171950Z 21013KT 26/03 A2994 RMK A01 T02590027  RH  022%=      5-min Rain = 0
KAI1 171951Z 22012KT 26/02 A2994 RMK A01 T02570024  RH  022%=      5-min Rain = 0
KAI1 171952Z 20012KT 26/02 A2994 RMK A01 T02550024  RH  022%=      5-min Rain = 0
KAI1 171953Z 20010KT 25/03 A2994 RMK A01 T02540026  RH  023%=      5-min Rain = 0
KAI1 171954Z 21011KT 25/02 A2994 RMK A01 T02530024  RH  023%=      5-min Rain = 0
KAI1 171955Z 22011KT 25/02 A2993 RMK A01 T02530024  RH  023%=      5-min Rain = 0
KAI1 171956Z 20011KT 26/02 A2993 RMK A01 T02560023  RH  022%=      5-min Rain = 0
KAI1 171957Z 20009KT 26/03 A2993 RMK A01 T02590033  RH  023%=      5-min Rain = 0
KAI1 171958Z 20010KT 26/03 A2993 RMK A01 T02600031  RH  023%=      5-min Rain = 0
KAI1 171959Z 19011G16KT 26/03 A2993 RMK A01 T02580033  RH  023%=      5-min Rain = 0
KAI1 172000Z 22013KT 26/03 A2993 RMK A01 T02580030  RH  023%=      5-min Rain = 0
KAI1 172001Z 20009KT 26/02 A2993 RMK A01 T02580024  RH  022%=      5-min Rain = 0
KAI1 172002Z 18011KT 26/03 A2993 RMK A01 T02560027  RH  023%=      5-min Rain = 0
KAI1 172003Z 18010KT 26/03 A2993 RMK A01 T02560029  RH  023%=      5-min Rain = 0
KAI1 172004Z 17009KT 25/03 A2993 RMK A01 T02540028  RH  023%=      5-min Rain = 0
KAI1 172005Z 18014KT 25/03 A2993 RMK A01 T02540030  RH  023%=      5-min Rain = 0
KAI1 172006Z 18014KT 26/03 A2993 RMK A01 T02560030  RH  023%=      5-min Rain = 0
KAI1 172007Z 18011KT 26/03 A2993 RMK A01 T02560032  RH  023%=      5-min Rain = 0
KAI1 172008Z 20008KT 26/03 A2993 RMK A01 T02580031  RH  023%=      5-min Rain = 0
KAI1 172009Z 20009KT 26/03 A2993 RMK A01 T02590031  RH  023%=      5-min Rain = 0
KAI1 172010Z 20013KT 26/03 A2993 RMK A01 T02590031  RH  023%=      5-min Rain = 0
KAI1 172011Z 19012KT 26/03 A2993 RMK A01 T02580031  RH  023%=      5-min Rain = 0
KAI1 172012Z 18008KT 26/03 A2992 RMK A01 T02580031  RH  023%=      5-min Rain = 0
KAI1 172013Z 19013KT 26/03 A2992 RMK A01 T02590034  RH  023%=      5-min Rain = 0
KAI1 172014Z 21011KT 26/03 A2992 RMK A01 T02600030  RH  023%=      5-min Rain = 0
KAI1 172015Z 19014KT 26/03 A2992 RMK A01 T02570032  RH  023%=      5-min Rain = 0
KAI1 172016Z 20014KT 26/03 A2992 RMK A01 T02590029  RH  023%=      5-min Rain = 0
KAI1 172017Z 19012KT 26/03 A2992 RMK A01 T02600029  RH  022%=      5-min Rain = 0
KAI1 172018Z 20011KT 26/03 A2992 RMK A01 T02570028  RH  023%=      5-min Rain = 0
KAI1 172019Z 19012KT 26/03 A2992 RMK A01 T02550034  RH  024%=      5-min Rain = 0
KAI1 172020Z 18012KT 26/03 A2992 RMK A01 T02590031  RH  023%=      5-min Rain = 0
KAI1 172021Z 20013KT 26/03 A2992 RMK A01 T02580029  RH  023%=      5-min Rain = 0
KAI1 172022Z 21014KT 26/03 A2992 RMK A01 T02590027  RH  022%=      5-min Rain = 0
KAI1 172023Z 21011KT 26/03 A2992 RMK A01 T02580025  RH  022%=      5-min Rain = 0
KAI1 172024Z 20012KT 26/03 A2992 RMK A01 T02580028  RH  023%=      5-min Rain = 0
KAI1 172025Z 20012KT 26/03 A2992 RMK A01 T02590026  RH  022%=      5-min Rain = 0
KAI1 172026Z 21009KT 26/03 A2992 RMK A01 T02570026  RH  022%=      5-min Rain = 0
KAI1 172027Z 18010KT 26/03 A2992 RMK A01 T02550028  RH  023%=      5-min Rain = 0
KAI1 172028Z 18011KT 26/03 A2992 RMK A01 T02560031  RH  023%=      5-min Rain = 0
KAI1 172029Z 18010KT 26/03 A2992 RMK A01 T02580033  RH  023%=      5-min Rain = 0
KAI1 172030Z 18007KT 26/03 A2992 RMK A01 T02580032  RH  023%=      5-min Rain = 0
KAI1 172031Z 18013G19KT 26/03 A2992 RMK A01 T02580033  RH  023%=      5-min Rain = 0
KAI1 172032Z 17013KT 26/03 A2992 RMK A01 T02590031  RH  023%=      5-min Rain = 0
KAI1 172033Z 18012KT 26/03 A2992 RMK A01 T02590032  RH  023%=      5-min Rain = 0
KAI1 172034Z 20011G17KT 26/03 A2992 RMK A01 T02590033  RH  023%=      5-min Rain = 0
KAI1 172035Z 22010KT 26/03 A2992 RMK A01 T02590033  RH  023%=      5-min Rain = 0
KAI1 172036Z 20010KT 26/03 A2992 RMK A01 T02580032  RH  023%=      5-min Rain = 0
KAI1 172037Z 20014KT 26/03 A2992 RMK A01 T02570034  RH  024%=      5-min Rain = 0
KAI1 172038Z 20014KT 26/04 A2992 RMK A01 T02580035  RH  024%=      5-min Rain = 0
KAI1 172039Z 19009KT 26/03 A2992 RMK A01 T02580033  RH  023%=      5-min Rain = 0
KAI1 172040Z 17011KT 26/03 A2992 RMK A01 T02570032  RH  023%=      5-min Rain = 0
KAI1 172041Z 18013KT 26/03 A2992 RMK A01 T02570031  RH  023%=      5-min Rain = 0
KAI1 172042Z 18013KT 26/03 A2992 RMK A01 T02580031  RH  023%=      5-min Rain = 0
KAI1 172043Z 20011KT 26/03 A2992 RMK A01 T02560029  RH  023%=      5-min Rain = 0
KAI1 172044Z 19013KT 25/03 A2992 RMK A01 T02540030  RH  023%=      5-min Rain = 0
KAI1 172045Z 17010KT 26/03 A2992 RMK A01 T02550030  RH  023%=      5-min Rain = 0
KAI1 172046Z 18014G19KT 26/03 A2991 RMK A01 T02580030  RH  023%=      5-min Rain = 0
KAI1 172047Z 19015KT 26/03 A2991 RMK A01 T02600028  RH  022%=      5-min Rain = 0
KAI1 172048Z 18012KT 26/03 A2991 RMK A01 T02580028  RH  022%=      5-min Rain = 0
KAI1 172049Z 19016KT 26/03 A2991 RMK A01 T02580029  RH  023%=      5-min Rain = 0
KAI1 172050Z 19011KT 26/03 A2991 RMK A01 T02580027  RH  022%=      5-min Rain = 0
KAI1 172051Z 18011KT 26/03 A2991 RMK A01 T02570028  RH  023%=      5-min Rain = 0
KAI1 172052Z 17012G17KT 26/03 A2991 RMK A01 T02570028  RH  023%=      5-min Rain = 0
KAI1 172053Z 19016KT 26/03 A2991 RMK A01 T02590026  RH  022%=      5-min Rain = 0
KAI1 172054Z 19013KT 26/02 A2991 RMK A01 T02590024  RH  022%=      5-min Rain = 0
KAI1 172055Z 19012KT 26/02 A2991 RMK A01 T02560024  RH  022%=      5-min Rain = 0
KAI1 172056Z 19009KT 26/03 A2991 RMK A01 T02570026  RH  022%=      5-min Rain = 0
KAI1 172057Z 19012KT 26/03 A2991 RMK A01 T02600027  RH  022%=      5-min Rain = 0
KAI1 172058Z 19013KT 26/03 A2991 RMK A01 T02610028  RH  022%=      5-min Rain = 0
KAI1 172059Z 20015KT 26/03 A2991 RMK A01 T02600028  RH  022%=      5-min Rain = 0
KAI1 172100Z 19012KT 26/03 A2991 RMK A01 T02590026  RH  022%=      5-min Rain = 0
KAI1 172101Z 19010KT 26/02 A2991 RMK A01 T02580024  RH  022%=      5-min Rain = 0
KAI1 172102Z 18011KT 26/02 A2991 RMK A01 T02580022  RH  022%=      5-min Rain = 0
KAI1 172103Z 19010G15KT 26/02 A2991 RMK A01 T02580023  RH  022%=      5-min Rain = 0
KAI1 172104Z 20011KT 26/03 A2991 RMK A01 T02600025  RH  022%=      5-min Rain = 0
KAI1 172105Z 20014KT 26/02 A2991 RMK A01 T02610023  RH  021%=      5-min Rain = 0
KAI1 172106Z 20013KT 26/03 A2991 RMK A01 T02610026  RH  022%=      5-min Rain = 0
KAI1 172107Z 19013KT 26/03 A2991 RMK A01 T02600025  RH  022%=      5-min Rain = 0
KAI1 172108Z 18012KT 26/02 A2991 RMK A01 T02590024  RH  022%=      5-min Rain = 0
KAI1 172109Z 19012KT 26/02 A2991 RMK A01 T02590022  RH  021%=      5-min Rain = 0
KAI1 172110Z 20010KT 26/02 A2991 RMK A01 T02590024  RH  022%=      5-min Rain = 0
KAI1 172111Z 20011KT 26/03 A2991 RMK A01 T02590026  RH  022%=      5-min Rain = 0
KAI1 172112Z 20012KT 26/02 A2991 RMK A01 T02600020  RH  021%=      5-min Rain = 0
KAI1 172113Z 19011KT 26/02 A2991 RMK A01 T02590021  RH  021%=      5-min Rain = 0
KAI1 172114Z 18011KT 26/03 A299 RMK A01 T02580025  RH  022%=      5-min Rain = 0
KAI1 172115Z 18014KT 26/02 A299 RMK A01 T02600022  RH  021%=      5-min Rain = 0
KAI1 172116Z 18013KT 26/02 A299 RMK A01 T02610021  RH  021%=      5-min Rain = 0
KAI1 172117Z 18010KT 26/02 A299 RMK A01 T02600024  RH  022%=      5-min Rain = 0
KAI1 172118Z 18012KT 26/03 A299 RMK A01 T02610026  RH  022%=      5-min Rain = 0
KAI1 172119Z 19013KT 26/02 A299 RMK A01 T02620022  RH  021%=      5-min Rain = 0
KAI1 172120Z 20010KT 26/02 A299 RMK A01 T02620021  RH  021%=      5-min Rain = 0
KAI1 172121Z 18013KT 26/02 A299 RMK A01 T02610021  RH  021%=      5-min Rain = 0
KAI1 172122Z 18009KT 26/02 A299 RMK A01 T02600020  RH  021%=      5-min Rain = 0
KAI1 172123Z 19013KT 26/02 A299 RMK A01 T02590023  RH  022%=      5-min Rain = 0
KAI1 172124Z 19015KT 26/02 A299 RMK A01 T02610020  RH  021%=      5-min Rain = 0
KAI1 172125Z 18013KT 26/02 A299 RMK A01 T02590019  RH  021%=      5-min Rain = 0
KAI1 172126Z 18013KT 26/02 A299 RMK A01 T02580019  RH  021%=      5-min Rain = 0
KAI1 172127Z 17014KT 26/02 A299 RMK A01 T02570021  RH  021%=      5-min Rain = 0
KAI1 172128Z 18015KT 26/02 A299 RMK A01 T02580022  RH  021%=      5-min Rain = 0
KAI1 172129Z 18014KT 26/02 A299 RMK A01 T02590021  RH  021%=      5-min Rain = 0
KAI1 172130Z 18014KT 26/02 A299 RMK A01 T02590021  RH  021%=      5-min Rain = 0
KAI1 172131Z 19011KT 26/02 A299 RMK A01 T02590020  RH  021%=      5-min Rain = 0
KAI1 172132Z 19010KT 26/02 A299 RMK A01 T02590022  RH  022%=      5-min Rain = 0
KAI1 172133Z 18013KT 26/02 A299 RMK A01 T02580023  RH  022%=      5-min Rain = 0
KAI1 172134Z 18013KT 26/02 A299 RMK A01 T02590022  RH  021%=      5-min Rain = 0
KAI1 172135Z 20013KT 26/02 A299 RMK A01 T02610023  RH  021%=      5-min Rain = 0
KAI1 172136Z 20013KT 26/02 A299 RMK A01 T02610023  RH  021%=      5-min Rain = 0
KAI1 172137Z 20010KT 26/02 A299 RMK A01 T02610024  RH  021%=      5-min Rain = 0
KAI1 172138Z 18012KT 26/02 A299 RMK A01 T02600024  RH  022%=      5-min Rain = 0
KAI1 172139Z 18012KT 26/03 A299 RMK A01 T02610025  RH  022%=      5-min Rain = 0
KAI1 172140Z 18015KT 26/02 A299 RMK A01 T02620022  RH  021%=      5-min Rain = 0
KAI1 172141Z 19014KT 26/02 A299 RMK A01 T02630018  RH  020%=      5-min Rain = 0
KAI1 172142Z 18011KT 26/02 A299 RMK A01 T02620019  RH  021%=      5-min Rain = 0
KAI1 172143Z 18012KT 26/02 A299 RMK A01 T02620020  RH  021%=      5-min Rain = 0
KAI1 172144Z 18012G17KT 26/02 A299 RMK A01 T02630024  RH  021%=      5-min Rain = 0
KAI1 172145Z 18013KT 26/02 A299 RMK A01 T02640021  RH  021%=      5-min Rain = 0
KAI1 172146Z 17014KT 26/02 A2989 RMK A01 T02610019  RH  021%=      5-min Rain = 0
KAI1 172147Z 18011KT 26/02 A299 RMK A01 T02600020  RH  021%=      5-min Rain = 0
KAI1 172148Z 18011KT 26/02 A299 RMK A01 T02600024  RH  022%=      5-min Rain = 0
KAI1 172149Z 18010KT 26/03 A299 RMK A01 T02630027  RH  022%=      5-min Rain = 0
KAI1 172150Z 17012KT 26/03 A299 RMK A01 T02640029  RH  022%=      5-min Rain = 0
KAI1 172151Z 18012KT 27/03 A2989 RMK A01 T02650026  RH  021%=      5-min Rain = 0
KAI1 172152Z 19012G18KT 26/02 A2989 RMK A01 T02630022  RH  021%=      5-min Rain = 0
KAI1 172153Z 20015KT 26/02 A2989 RMK A01 T02620024  RH  021%=      5-min Rain = 0
KAI1 172154Z 19014KT 26/02 A2989 RMK A01 T02620024  RH  021%=      5-min Rain = 0
KAI1 172155Z 20012KT 26/02 A2989 RMK A01 T02610024  RH  022%=      5-min Rain = 0
KAI1 172156Z 20016KT 26/03 A2989 RMK A01 T02600025  RH  022%=      5-min Rain = 0
KAI1 172157Z 19012KT 26/02 A2989 RMK A01 T02580023  RH  022%=      5-min Rain = 0
KAI1 172158Z 19011KT 26/02 A2989 RMK A01 T02560024  RH  022%=      5-min Rain = 0
KAI1 172159Z 18009KT 26/03 A2989 RMK A01 T02560026  RH  022%=      5-min Rain = 0
KAI1 172200Z 17008KT 26/03 A2989 RMK A01 T02570027  RH  022%=      5-min Rain = 0
KAI1 172201Z 17011KT 26/03 A2989 RMK A01 T02590029  RH  022%=      5-min Rain = 0
KAI1 172202Z 18014KT 26/03 A2989 RMK A01 T02600028  RH  022%=      5-min Rain = 0
KAI1 172203Z 19013KT 26/03 A2989 RMK A01 T02600028  RH  022%=      5-min Rain = 0
KAI1 172204Z 19016KT 26/03 A2989 RMK A01 T02600029  RH  022%=      5-min Rain = 0
KAI1 172205Z 20014KT 26/03 A2989 RMK A01 T02580026  RH  022%=      5-min Rain = 0
KAI1 172206Z 21011KT 26/03 A2989 RMK A01 T02560029  RH  023%=      5-min Rain = 0
KAI1 172207Z 20011KT 26/03 A2989 RMK A01 T02550031  RH  023%=      5-min Rain = 0
KAI1 172208Z 19011KT 25/03 A2989 RMK A01 T02540031  RH  024%=      5-min Rain = 0
KAI1 172209Z 19014KT 25/03 A2989 RMK A01 T02540031  RH  024%=      5-min Rain = 0
KAI1 172210Z 18015KT 25/03 A2989 RMK A01 T02530031  RH  024%=      5-min Rain = 0
KAI1 172211Z 18012KT 25/03 A2989 RMK A01 T02520029  RH  024%=      5-min Rain = 0
KAI1 172212Z 18012KT 25/03 A2989 RMK A01 T02510029  RH  024%=      5-min Rain = 0
KAI1 172213Z 18013KT 25/03 A2989 RMK A01 T02510029  RH  024%=      5-min Rain = 0
KAI1 172214Z 19014KT 25/03 A2989 RMK A01 T02510029  RH  024%=      5-min Rain = 0
KAI1 172215Z 19013KT 25/03 A2989 RMK A01 T02510028  RH  024%=      5-min Rain = 0
KAI1 172216Z 19012KT 25/03 A2989 RMK A01 T02510029  RH  024%=      5-min Rain = 0
KAI1 172217Z 19013KT 25/03 A2989 RMK A01 T02520031  RH  024%=      5-min Rain = 0
KAI1 172218Z 19013KT 25/03 A2989 RMK A01 T02530032  RH  024%=      5-min Rain = 0
KAI1 172219Z 19012KT 25/03 A2989 RMK A01 T02540032  RH  024%=      5-min Rain = 0
KAI1 172220Z 18009KT 25/03 A2989 RMK A01 T02540033  RH  024%=      5-min Rain = 0
KAI1 172221Z 18011KT 26/03 A2989 RMK A01 T02560033  RH  024%=      5-min Rain = 0
KAI1 172222Z 20014KT 26/03 A2989 RMK A01 T02580033  RH  023%=      5-min Rain = 0
KAI1 172223Z 20015KT 26/03 A2989 RMK A01 T02590034  RH  023%=      5-min Rain = 0
KAI1 172224Z 19014KT 26/03 A2989 RMK A01 T02590034  RH  023%=      5-min Rain = 0
KAI1 172225Z 19011KT 26/03 A2989 RMK A01 T02580034  RH  023%=      5-min Rain = 0
KAI1 172226Z 19011KT 26/04 A2989 RMK A01 T02590036  RH  024%=      5-min Rain = 0
KAI1 172227Z 18014KT 26/04 A2989 RMK A01 T02610035  RH  023%=      5-min Rain = 0
KAI1 172228Z 18014KT 26/03 A2989 RMK A01 T02610033  RH  023%=      5-min Rain = 0
KAI1 172229Z 18014KT 26/03 A2989 RMK A01 T02600032  RH  023%=      5-min Rain = 0
KAI1 172230Z 18012KT 26/03 A2989 RMK A01 T02580032  RH  023%=      5-min Rain = 0
KAI1 172231Z 18016KT 26/03 A2988 RMK A01 T02580033  RH  023%=      5-min Rain = 0
KAI1 172232Z 18015KT 26/03 A2988 RMK A01 T02570033  RH  023%=      5-min Rain = 0
KAI1 172233Z 19014KT 26/03 A2988 RMK A01 T02560033  RH  024%=      5-min Rain = 0
KAI1 172234Z 19015KT 26/03 A2988 RMK A01 T02560034  RH  024%=      5-min Rain = 0
KAI1 172235Z 19015KT 26/03 A2988 RMK A01 T02550033  RH  024%=      5-min Rain = 0
KAI1 172236Z 20015KT 26/03 A2988 RMK A01 T02560034  RH  024%=      5-min Rain = 0
KAI1 172237Z 19013KT 26/03 A2988 RMK A01 T02550033  RH  024%=      5-min Rain = 0
KAI1 172238Z 19013KT 26/03 A2988 RMK A01 T02550033  RH  024%=      5-min Rain = 0
KAI1 172239Z 19012KT 26/03 A2988 RMK A01 T02550034  RH  024%=      5-min Rain = 0
KAI1 172240Z 19013KT 26/03 A2988 RMK A01 T02550034  RH  024%=      5-min Rain = 0
KAI1 172241Z 18011KT 26/03 A2988 RMK A01 T02550033  RH  024%=      5-min Rain = 0
KAI1 172242Z 18013KT 26/03 A2988 RMK A01 T02550033  RH  024%=      5-min Rain = 0
KAI1 172243Z 17012KT 26/03 A2988 RMK A01 T02550034  RH  024%=      5-min Rain = 0
KAI1 172244Z 19013KT 26/04 A2988 RMK A01 T02550035  RH  024%=      5-min Rain = 0
KAI1 172245Z 19014KT 25/04 A2988 RMK A01 T02540035  RH  024%=      5-min Rain = 0
KAI1 172246Z 18011KT 26/04 A2988 RMK A01 T02550035  RH  024%=      5-min Rain = 0
KAI1 172247Z 19013KT 25/03 A2988 RMK A01 T02540034  RH  024%=      5-min Rain = 0
KAI1 172248Z 18012KT 25/03 A2988 RMK A01 T02540034  RH  024%=      5-min Rain = 0
KAI1 172249Z 20016KT 25/03 A2988 RMK A01 T02530034  RH  024%=      5-min Rain = 0
KAI1 172250Z 19014KT 25/04 A2988 RMK A01 T02510035  RH  025%=      5-min Rain = 0
KAI1 172251Z 17013KT 25/04 A2988 RMK A01 T02500035  RH  025%=      5-min Rain = 0
KAI1 172252Z 17011KT 25/04 A2988 RMK A01 T02490036  RH  025%=      5-min Rain = 0
KAI1 172253Z 19009KT 25/04 A2988 RMK A01 T02480036  RH  025%=      5-min Rain = 0
KAI1 172254Z 19009KT 25/04 A2988 RMK A01 T02480036  RH  025%=      5-min Rain = 0
KAI1 172255Z 19011KT 25/04 A2988 RMK A01 T02480035  RH  025%=      5-min Rain = 0
KAI1 172256Z 17013KT 25/03 A2988 RMK A01 T02490034  RH  025%=      5-min Rain = 0
KAI1 172257Z 17015KT 25/03 A2988 RMK A01 T02500034  RH  025%=      5-min Rain = 0
KAI1 172258Z 18012G17KT 25/03 A2988 RMK A01 T02510033  RH  024%=      5-min Rain = 0
KAI1 172259Z 18013KT 25/03 A2988 RMK A01 T02510033  RH  024%=      5-min Rain = 0
KAI1 172300Z 19014KT 25/03 A2988 RMK A01 T02510034  RH  025%=      5-min Rain = 0
KAI1 172301Z 19013KT 25/03 A2988 RMK A01 T02510034  RH  024%=      5-min Rain = 0
KAI1 172302Z 18014KT 25/03 A2988 RMK A01 T02510033  RH  024%=      5-min Rain = 0
KAI1 172303Z 19014KT 25/03 A2988 RMK A01 T02510034  RH  024%=      5-min Rain = 0
KAI1 172304Z 19013KT 25/04 A2988 RMK A01 T02510035  RH  025%=      5-min Rain = 0
KAI1 172305Z 19013KT 25/04 A2988 RMK A01 T02500035  RH  025%=      5-min Rain = 0
KAI1 172306Z 19014KT 25/03 A2988 RMK A01 T02500034  RH  025%=      5-min Rain = 0
KAI1 172307Z 18009KT 25/03 A2987 RMK A01 T02500034  RH  025%=      5-min Rain = 0
KAI1 172308Z 18013KT 25/04 A2987 RMK A01 T02500035  RH  025%=      5-min Rain = 0
KAI1 172309Z 18013KT 25/04 A2987 RMK A01 T02500035  RH  025%=      5-min Rain = 0
KAI1 172310Z 18015KT 25/03 A2987 RMK A01 T02490034  RH  025%=      5-min Rain = 0
KAI1 172311Z 18013KT 25/03 A2987 RMK A01 T02500034  RH  025%=      5-min Rain = 0
KAI1 172312Z 17010KT 25/04 A2987 RMK A01 T02490035  RH  025%=      5-min Rain = 0
KAI1 172313Z 18011G16KT 25/04 A2987 RMK A01 T02490036  RH  025%=      5-min Rain = 0
KAI1 172314Z 18011KT 25/04 A2987 RMK A01 T02490036  RH  025%=      5-min Rain = 0
KAI1 172315Z 17012KT 25/04 A2987 RMK A01 T02490036  RH  025%=      5-min Rain = 0
KAI1 172316Z 17011KT 25/04 A2987 RMK A01 T02490036  RH  025%=      5-min Rain = 0
KAI1 172317Z 18010KT 25/04 A2987 RMK A01 T02490037  RH  025%=      5-min Rain = 0
KAI1 172318Z 18010KT 25/04 A2987 RMK A01 T02480037  RH  026%=      5-min Rain = 0
KAI1 172319Z 18012KT 25/04 A2987 RMK A01 T02480038  RH  026%=      5-min Rain = 0
KAI1 172320Z 18013KT 25/04 A2987 RMK A01 T02480037  RH  026%=      5-min Rain = 0
KAI1 172321Z 17012KT 25/04 A2987 RMK A01 T02480038  RH  026%=      5-min Rain = 0
KAI1 172322Z 18012KT 25/04 A2987 RMK A01 T02480039  RH  026%=      5-min Rain = 0
KAI1 172323Z 18013KT 25/04 A2987 RMK A01 T02470040  RH  026%=      5-min Rain = 0
KAI1 172324Z 18012KT 25/04 A2987 RMK A01 T02470039  RH  026%=      5-min Rain = 0
KAI1 172325Z 18010KT 25/04 A2987 RMK A01 T02470040  RH  026%=      5-min Rain = 0
KAI1 172326Z 18012KT 25/04 A2987 RMK A01 T02470041  RH  026%=      5-min Rain = 0
KAI1 172327Z 18012KT 25/04 A2987 RMK A01 T02460040  RH  026%=      5-min Rain = 0
KAI1 172328Z 18009KT 25/04 A2987 RMK A01 T02460040  RH  026%=      5-min Rain = 0
KAI1 172329Z 18010KT 25/04 A2987 RMK A01 T02460040  RH  026%=      5-min Rain = 0
KAI1 172330Z 18012KT 25/04 A2987 RMK A01 T02450040  RH  026%=      5-min Rain = 0
KAI1 172331Z 18013KT 25/04 A2987 RMK A01 T02450040  RH  026%=      5-min Rain = 0
KAI1 172332Z 18011KT 24/04 A2987 RMK A01 T02440040  RH  027%=      5-min Rain = 0
KAI1 172333Z 17010KT 24/04 A2987 RMK A01 T02430041  RH  027%=      5-min Rain = 0
KAI1 172334Z 18011KT 24/04 A2987 RMK A01 T02430041  RH  027%=      5-min Rain = 0
KAI1 172335Z 18009KT 24/04 A2987 RMK A01 T02410041  RH  027%=      5-min Rain = 0
KAI1 172336Z 18011KT 24/04 A2987 RMK A01 T02400041  RH  027%=      5-min Rain = 0
KAI1 172337Z 18010KT 24/04 A2987 RMK A01 T02390041  RH  028%=      5-min Rain = 0
KAI1 172338Z 18010KT 24/04 A2987 RMK A01 T02380041  RH  028%=      5-min Rain = 0
KAI1 172339Z 17010KT 24/04 A2987 RMK A01 T02370041  RH  028%=      5-min Rain = 0
KAI1 172340Z 17011KT 24/04 A2987 RMK A01 T02360041  RH  028%=      5-min Rain = 0
KAI1 172341Z 18011KT 24/04 A2987 RMK A01 T02350041  RH  028%=      5-min Rain = 0
KAI1 172342Z 17010KT 23/04 A2987 RMK A01 T02340041  RH  028%=      5-min Rain = 0
KAI1 172343Z 17009KT 23/04 A2987 RMK A01 T02330042  RH  029%=      5-min Rain = 0
KAI1 172344Z 17009KT 23/04 A2987 RMK A01 T02320042  RH  029%=      5-min Rain = 0
KAI1 172345Z 17010KT 23/04 A2987 RMK A01 T02310043  RH  029%=      5-min Rain = 0
KAI1 172346Z 17009KT 23/04 A2987 RMK A01 T02290043  RH  030%=      5-min Rain = 0
KAI1 172347Z 17010KT 23/04 A2987 RMK A01 T02290043  RH  030%=      5-min Rain = 0
KAI1 172348Z 17009KT 23/04 A2987 RMK A01 T02280044  RH  030%=      5-min Rain = 0
KAI1 172349Z 17009KT 23/04 A2987 RMK A01 T02270044  RH  030%=      5-min Rain = 0
KAI1 172350Z 17010KT 23/04 A2987 RMK A01 T02270044  RH  030%=      5-min Rain = 0
KAI1 172351Z 17010KT 23/04 A2987 RMK A01 T02260044  RH  031%=      5-min Rain = 0
KAI1 172352Z 17009KT 23/05 A2987 RMK A01 T02250045  RH  031%=      5-min Rain = 0
KAI1 172353Z 17009KT 22/05 A2987 RMK A01 T02240046  RH  031%=      5-min Rain = 0
KAI1 172354Z 17010KT 22/05 A2987 RMK A01 T02230046  RH  031%=      5-min Rain = 0
KAI1 172355Z 17010KT 22/05 A2987 RMK A01 T02230046  RH  032%=      5-min Rain = 0
KAI1 172356Z 18010KT 22/05 A2986 RMK A01 T02220046  RH  032%=      5-min Rain = 0
KAI1 172357Z 18010KT 22/05 A2986 RMK A01 T02220046  RH  032%=      5-min Rain = 0
KAI1 172358Z 17009KT 22/05 A2986 RMK A01 T02220046  RH  032%=      5-min Rain = 0
KAI1 172359Z 18010KT 22/05 A2986 RMK A01 T02220047  RH  032%=      5-min Rain = 0
KAI1 180000Z 17009KT 22/05 A2986 RMK A01 T02220047  RH  032%=      5-min Rain = 0
KAI1 180001Z 17008KT 22/05 A2986 RMK A01 T02210047  RH  032%=      5-min Rain = 0
KAI1 180002Z 17009KT 22/05 A2986 RMK A01 T02200047  RH  032%=      5-min Rain = 0
KAI1 180003Z 17009KT 22/05 A2986 RMK A01 T02190047  RH  033%=      5-min Rain = 0
KAI1 180004Z 17009KT 22/05 A2986 RMK A01 T02180047  RH  033%=      5-min Rain = 0
KAI1 180005Z 17009KT 22/05 A2986 RMK A01 T02170047  RH  033%=      5-min Rain = 0
KAI1 180006Z 17008KT 22/05 A2986 RMK A01 T02170047  RH  033%=      5-min Rain = 0
KAI1 180007Z 17009KT 22/05 A2986 RMK A01 T02160047  RH  033%=      5-min Rain = 0
KAI1 180008Z 17008KT 22/05 A2986 RMK A01 T02150047  RH  033%=      5-min Rain = 0
KAI1 180009Z 17009KT 21/05 A2986 RMK A01 T02140048  RH  034%=      5-min Rain = 0
KAI1 180010Z 17009KT 21/05 A2986 RMK A01 T02130047  RH  034%=      5-min Rain = 0
KAI1 180011Z 17009KT 21/05 A2986 RMK A01 T02130048  RH  034%=      5-min Rain = 0
KAI1 180012Z 17008KT 21/05 A2986 RMK A01 T02120048  RH  034%=      5-min Rain = 0
KAI1 180013Z 17008KT 21/05 A2986 RMK A01 T02110047  RH  034%=      5-min Rain = 0
KAI1 180014Z 17008KT 21/05 A2986 RMK A01 T02100048  RH  035%=      5-min Rain = 0
KAI1 180015Z 16009KT 21/05 A2986 RMK A01 T02080047  RH  035%=      5-min Rain = 0
KAI1 180016Z 16008KT 21/05 A2986 RMK A01 T02080048  RH  035%=      5-min Rain = 0
KAI1 180017Z 16008KT 21/05 A2986 RMK A01 T02070048  RH  035%=      5-min Rain = 0
KAI1 180018Z 17008KT 21/05 A2986 RMK A01 T02060048  RH  035%=      5-min Rain = 0
KAI1 180019Z 17008KT 21/05 A2986 RMK A01 T02060048  RH  036%=      5-min Rain = 0
KAI1 180020Z 17008KT 21/05 A2986 RMK A01 T02050048  RH  036%=      5-min Rain = 0
KAI1 180021Z 17008KT 20/05 A2986 RMK A01 T02040049  RH  036%=      5-min Rain = 0
KAI1 180022Z 16008KT 20/05 A2986 RMK A01 T02030049  RH  036%=      5-min Rain = 0
KAI1 180023Z 17008KT 20/05 A2986 RMK A01 T02020049  RH  037%=      5-min Rain = 0
KAI1 180024Z 16008KT 20/05 A2986 RMK A01 T02010050  RH  037%=      5-min Rain = 0
KAI1 180025Z 16008KT 20/05 A2986 RMK A01 T02000051  RH  038%=      5-min Rain = 0
KAI1 180026Z 16007KT 20/05 A2986 RMK A01 T01990052  RH  038%=      5-min Rain = 0
KAI1 180027Z 16008KT 20/05 A2986 RMK A01 T01980053  RH  039%=      5-min Rain = 0
KAI1 180028Z 16008KT 20/05 A2986 RMK A01 T01960053  RH  039%=      5-min Rain = 0
KAI1 180029Z 16008KT 20/05 A2986 RMK A01 T01950054  RH  039%=      5-min Rain = 0
KAI1 180030Z 16008KT 19/05 A2986 RMK A01 T01940054  RH  040%=      5-min Rain = 0
KAI1 180031Z 17008KT 19/05 A2986 RMK A01 T01940054  RH  040%=      5-min Rain = 0
KAI1 180032Z 16008KT 19/05 A2986 RMK A01 T01930054  RH  040%=      5-min Rain = 0
KAI1 180033Z 16008KT 19/05 A2986 RMK A01 T01930054  RH  040%=      5-min Rain = 0
KAI1 180034Z 16007KT 19/05 A2986 RMK A01 T01930054  RH  040%=      5-min Rain = 0
KAI1 180035Z 16008KT 19/05 A2986 RMK A01 T01920054  RH  040%=      5-min Rain = 0
KAI1 180036Z 16008KT 19/06 A2986 RMK A01 T01920055  RH  041%=      5-min Rain = 0
KAI1 180037Z 16008KT 19/06 A2986 RMK A01 T01920055  RH  041%=      5-min Rain = 0
KAI1 180038Z 16008KT 19/06 A2986 RMK A01 T01920055  RH  041%=      5-min Rain = 0
KAI1 180039Z 16008KT 19/06 A2986 RMK A01 T01910056  RH  041%=      5-min Rain = 0
KAI1 180040Z 16008KT 19/06 A2986 RMK A01 T01910056  RH  041%=      5-min Rain = 0
KAI1 180041Z 16008KT 19/06 A2986 RMK A01 T01900056  RH  041%=      5-min Rain = 0
KAI1 180042Z 16009KT 19/06 A2986 RMK A01 T01890056  RH  042%=      5-min Rain = 0
KAI1 180043Z 16009KT 19/06 A2986 RMK A01 T01890056  RH  042%=      5-min Rain = 0
KAI1 180044Z 15008KT 19/06 A2986 RMK A01 T01890056  RH  042%=      5-min Rain = 0
KAI1 180045Z 16009KT 19/06 A2986 RMK A01 T01890056  RH  042%=      5-min Rain = 0
KAI1 180046Z 16008KT 19/06 A2986 RMK A01 T01890056  RH  042%=      5-min Rain = 0
KAI1 180047Z 15009KT 19/06 A2986 RMK A01 T01880056  RH  042%=      5-min Rain = 0
KAI1 180048Z 16009KT 19/06 A2986 RMK A01 T01880056  RH  042%=      5-min Rain = 0
KAI1 180049Z 16009KT 19/06 A2986 RMK A01 T01880057  RH  042%=      5-min Rain = 0
KAI1 180050Z 16010KT 19/06 A2986 RMK A01 T01880057  RH  042%=      5-min Rain = 0
KAI1 180051Z 16009KT 19/06 A2986 RMK A01 T01880057  RH  042%=      5-min Rain = 0
KAI1 180052Z 16010KT 19/06 A2986 RMK A01 T01880058  RH  043%=      5-min Rain = 0
KAI1 180053Z 16009KT 19/06 A2986 RMK A01 T01880058  RH  043%=      5-min Rain = 0
KAI1 180054Z 16010KT 19/06 A2986 RMK A01 T01890059  RH  043%=      5-min Rain = 0
KAI1 180055Z 16009KT 19/06 A2986 RMK A01 T01890060  RH  043%=      5-min Rain = 0
KAI1 180056Z 16009KT 19/06 A2986 RMK A01 T01890060  RH  043%=      5-min Rain = 0
KAI1 180057Z 16009KT 19/06 A2986 RMK A01 T01890061  RH  043%=      5-min Rain = 0
KAI1 180058Z 16009KT 19/06 A2986 RMK A01 T01890061  RH  043%=      5-min Rain = 0
KAI1 180059Z 16009KT 19/06 A2986 RMK A01 T01890062  RH  043%=      5-min Rain = 0
KAI1 180100Z 16009KT 19/06 A2986 RMK A01 T01880061  RH  043%=      5-min Rain = 0
KAI1 180101Z 16008KT 19/06 A2986 RMK A01 T01880062  RH  044%=      5-min Rain = 0
KAI1 180102Z 16008KT 19/06 A2986 RMK A01 T01870062  RH  044%=      5-min Rain = 0
KAI1 180103Z 16008KT 19/06 A2986 RMK A01 T01860062  RH  044%=      5-min Rain = 0
KAI1 180104Z 16008KT 19/06 A2986 RMK A01 T01850062  RH  044%=      5-min Rain = 0
KAI1 180105Z 16008KT 18/06 A2986 RMK A01 T01840062  RH  045%=      5-min Rain = 0
KAI1 180106Z 16008KT 18/06 A2986 RMK A01 T01830062  RH  045%=      5-min Rain = 0
KAI1 180107Z 16007KT 18/06 A2986 RMK A01 T01820062  RH  045%=      5-min Rain = 0
KAI1 180108Z 16008KT 18/06 A2986 RMK A01 T01810062  RH  046%=      5-min Rain = 0
KAI1 180109Z 16008KT 18/06 A2986 RMK A01 T01800062  RH  046%=      5-min Rain = 0
KAI1 180110Z 16008KT 18/06 A2986 RMK A01 T01790062  RH  046%=      5-min Rain = 0
KAI1 180111Z 16008KT 18/06 A2986 RMK A01 T01780062  RH  046%=      5-min Rain = 0
KAI1 180112Z 16007KT 18/06 A2986 RMK A01 T01780062  RH  047%=      5-min Rain = 0
KAI1 180113Z 16007KT 18/06 A2986 RMK A01 T01770062  RH  047%=      5-min Rain = 0
KAI1 180114Z 16007KT 18/06 A2986 RMK A01 T01760062  RH  047%=      5-min Rain = 0
KAI1 180115Z 16007KT 18/06 A2986 RMK A01 T01750063  RH  048%=      5-min Rain = 0
KAI1 180116Z 16007KT 17/06 A2986 RMK A01 T01740063  RH  048%=      5-min Rain = 0
KAI1 180117Z 16007KT 17/06 A2986 RMK A01 T01730063  RH  048%=      5-min Rain = 0
KAI1 180118Z 16006KT 17/06 A2986 RMK A01 T01720063  RH  048%=      5-min Rain = 0
KAI1 180119Z 16007KT 17/06 A2986 RMK A01 T01710062  RH  049%=      5-min Rain = 0
KAI1 180120Z 16007KT 17/06 A2986 RMK A01 T01700063  RH  049%=      5-min Rain = 0
KAI1 180121Z 17007KT 17/06 A2986 RMK A01 T01690062  RH  050%=      5-min Rain = 0
KAI1 180122Z 16007KT 17/06 A2986 RMK A01 T01670062  RH  050%=      5-min Rain = 0
KAI1 180123Z 16007KT 17/06 A2986 RMK A01 T01660062  RH  050%=      5-min Rain = 0
KAI1 180124Z 16007KT 17/06 A2986 RMK A01 T01650062  RH  051%=      5-min Rain = 0
KAI1 180125Z 16007KT 16/06 A2986 RMK A01 T01640062  RH  051%=      5-min Rain = 0
KAI1 180126Z 16007KT 16/06 A2986 RMK A01 T01640062  RH  051%=      5-min Rain = 0
KAI1 180127Z 16008KT 16/06 A2986 RMK A01 T01630062  RH  051%=      5-min Rain = 0
KAI1 180128Z 17008KT 16/06 A2986 RMK A01 T01630062  RH  051%=      5-min Rain = 0
KAI1 180129Z 17008KT 16/06 A2986 RMK A01 T01620061  RH  051%=      5-min Rain = 0
KAI1 180130Z 17008KT 16/06 A2986 RMK A01 T01620061  RH  051%=      5-min Rain = 0
KAI1 180131Z 16008KT 16/06 A2986 RMK A01 T01610061  RH  051%=      5-min Rain = 0
KAI1 180132Z 16008KT 16/06 A2986 RMK A01 T01610061  RH  051%=      5-min Rain = 0
KAI1 180133Z 17008KT 16/06 A2987 RMK A01 T01620062  RH  051%=      5-min Rain = 0
KAI1 180134Z 16007KT 16/06 A2987 RMK A01 T01620061  RH  051%=      5-min Rain = 0
KAI1 180135Z 16007KT 16/06 A2987 RMK A01 T01610061  RH  051%=      5-min Rain = 0
KAI1 180136Z 16007KT 16/06 A2987 RMK A01 T01610061  RH  051%=      5-min Rain = 0
KAI1 180137Z 16007KT 16/06 A2987 RMK A01 T01610061  RH  051%=      5-min Rain = 0
KAI1 180138Z 16007KT 16/06 A2987 RMK A01 T01600061  RH  052%=      5-min Rain = 0
KAI1 180139Z 16007KT 16/06 A2987 RMK A01 T01600061  RH  052%=      5-min Rain = 0
KAI1 180140Z 17007KT 16/06 A2987 RMK A01 T01600061  RH  052%=      5-min Rain = 0
KAI1 180141Z 16007KT 16/06 A2987 RMK A01 T01600061  RH  052%=      5-min Rain = 0
KAI1 180142Z 17007KT 16/06 A2987 RMK A01 T01590061  RH  052%=      5-min Rain = 0
KAI1 180143Z 16007KT 16/06 A2987 RMK A01 T01590061  RH  052%=      5-min Rain = 0
KAI1 180144Z 16007KT 16/06 A2987 RMK A01 T01580060  RH  052%=      5-min Rain = 0
KAI1 180145Z 16007KT 16/06 A2987 RMK A01 T01580060  RH  052%=      5-min Rain = 0
KAI1 180146Z 16007KT 16/06 A2987 RMK A01 T01570061  RH  053%=      5-min Rain = 0
KAI1 180147Z 16007KT 16/06 A2987 RMK A01 T01570061  RH  053%=      5-min Rain = 0
KAI1 180148Z 16007KT 16/06 A2987 RMK A01 T01560060  RH  053%=      5-min Rain = 0
KAI1 180149Z 16007KT 16/06 A2987 RMK A01 T01560060  RH  053%=      5-min Rain = 0
KAI1 180150Z 16007KT 16/06 A2986 RMK A01 T01560061  RH  053%=      5-min Rain = 0
KAI1 180151Z 16007KT 16/06 A2987 RMK A01 T01560061  RH  053%=      5-min Rain = 0
KAI1 180152Z 16007KT 16/06 A2987 RMK A01 T01560062  RH  054%=      5-min Rain = 0
KAI1 180153Z 16007KT 16/06 A2987 RMK A01 T01560062  RH  054%=      5-min Rain = 0
KAI1 180154Z 16007KT 16/06 A2986 RMK A01 T01560062  RH  054%=      5-min Rain = 0
KAI1 180155Z 16007KT 16/06 A2987 RMK A01 T01550062  RH  054%=      5-min Rain = 0
KAI1 180156Z 15007KT 16/06 A2987 RMK A01 T01550061  RH  054%=      5-min Rain = 0
KAI1 180157Z 16007KT 16/06 A2987 RMK A01 T01550061  RH  054%=      5-min Rain = 0
KAI1 180158Z 16007KT 15/06 A2987 RMK A01 T01540061  RH  054%=      5-min Rain = 0
KAI1 180159Z 16007KT 15/06 A2987 RMK A01 T01530060  RH  054%=      5-min Rain = 0
KAI1 180200Z 16007KT 15/06 A2987 RMK A01 T01530059  RH  054%=      5-min Rain = 0
KAI1 180201Z 16007KT 15/06 A2987 RMK A01 T01530059  RH  054%=      5-min Rain = 0
KAI1 180202Z 16007KT 15/06 A2987 RMK A01 T01530059  RH  054%=      5-min Rain = 0
KAI1 180203Z 16008KT 15/06 A2987 RMK A01 T01520059  RH  054%=      5-min Rain = 0
KAI1 180204Z 15007KT 15/06 A2987 RMK A01 T01520058  RH  053%=      5-min Rain = 0
KAI1 180205Z 16008KT 15/06 A2987 RMK A01 T01520058  RH  053%=      5-min Rain = 0
KAI1 180206Z 16008KT 15/06 A2987 RMK A01 T01520058  RH  053%=      5-min Rain = 0
KAI1 180207Z 16008KT 15/06 A2987 RMK A01 T01530059  RH  053%=      5-min Rain = 0
KAI1 180208Z 15009KT 15/06 A2987 RMK A01 T01530059  RH  053%=      5-min Rain = 0
KAI1 180209Z 15009KT 15/06 A2986 RMK A01 T01530059  RH  053%=      5-min Rain = 0
KAI1 180210Z 15009KT 15/06 A2986 RMK A01 T01540060  RH  053%=      5-min Rain = 0
KAI1 180211Z 15010KT 15/06 A2986 RMK A01 T01540060  RH  053%=      5-min Rain = 0
KAI1 180212Z 15010KT 16/06 A2986 RMK A01 T01550060  RH  053%=      5-min Rain = 0
KAI1 180213Z 15010KT 16/06 A2986 RMK A01 T01560060  RH  053%=      5-min Rain = 0
KAI1 180214Z 15010KT 16/06 A2986 RMK A01 T01570060  RH  053%=      5-min Rain = 0
KAI1 180215Z 15009KT 16/06 A2986 RMK A01 T01580060  RH  052%=      5-min Rain = 0
KAI1 180216Z 15009KT 16/06 A2986 RMK A01 T01590060  RH  052%=      5-min Rain = 0
KAI1 180217Z 15009KT 16/06 A2986 RMK A01 T01600061  RH  052%=      5-min Rain = 0
KAI1 180218Z 16009KT 16/06 A2986 RMK A01 T01600060  RH  052%=      5-min Rain = 0
KAI1 180219Z 15009KT 16/06 A2986 RMK A01 T01610060  RH  051%=      5-min Rain = 0
KAI1 180220Z 15009KT 16/06 A2986 RMK A01 T01610061  RH  051%=      5-min Rain = 0
KAI1 180221Z 16009KT 16/06 A2986 RMK A01 T01620061  RH  051%=      5-min Rain = 0
KAI1 180222Z 16009KT 16/06 A2986 RMK A01 T01630061  RH  051%=      5-min Rain = 0
KAI1 180223Z 16009KT 16/06 A2986 RMK A01 T01630061  RH  051%=      5-min Rain = 0
KAI1 180224Z 15009KT 16/06 A2986 RMK A01 T01630061  RH  051%=      5-min Rain = 0
KAI1 180225Z 16009KT 16/06 A2986 RMK A01 T01630061  RH  051%=      5-min Rain = 0
KAI1 180226Z 15009KT 16/06 A2986 RMK A01 T01640061  RH  051%=      5-min Rain = 0
KAI1 180227Z 16009KT 16/06 A2986 RMK A01 T01640061  RH  051%=      5-min Rain = 0
KAI1 180228Z 15008KT 16/06 A2986 RMK A01 T01640061  RH  051%=      5-min Rain = 0
KAI1 180229Z 16009KT 16/06 A2986 RMK A01 T01640061  RH  051%=      5-min Rain = 0
KAI1 180230Z 16009KT 16/06 A2986 RMK A01 T01640061  RH  051%=      5-min Rain = 0
KAI1 180231Z 16009KT 16/06 A2986 RMK A01 T01640061  RH  051%=      5-min Rain = 0
KAI1 180232Z 16009KT 16/06 A2986 RMK A01 T01640061  RH  051%=      5-min Rain = 0
KAI1 180233Z 16009KT 16/06 A2986 RMK A01 T01640062  RH  051%=      5-min Rain = 0
KAI1 180234Z 16008KT 16/06 A2986 RMK A01 T01630062  RH  051%=      5-min Rain = 0
KAI1 180235Z 16009KT 16/06 A2986 RMK A01 T01630062  RH  051%=      5-min Rain = 0
KAI1 180236Z 16008KT 16/06 A2986 RMK A01 T01630063  RH  051%=      5-min Rain = 0
KAI1 180237Z 16008KT 16/06 A2986 RMK A01 T01630063  RH  051%=      5-min Rain = 0
KAI1 180238Z 16009KT 16/06 A2986 RMK A01 T01630063  RH  052%=      5-min Rain = 0
KAI1 180239Z 16009KT 16/06 A2986 RMK A01 T01620063  RH  052%=      5-min Rain = 0
KAI1 180240Z 16009KT 16/06 A2986 RMK A01 T01620063  RH  052%=      5-min Rain = 0
KAI1 180241Z 16008KT 16/06 A2987 RMK A01 T01620063  RH  052%=      5-min Rain = 0
KAI1 180242Z 17008KT 16/06 A2987 RMK A01 T01620063  RH  052%=      5-min Rain = 0
KAI1 180243Z 16008KT 16/06 A2987 RMK A01 T01620063  RH  052%=      5-min Rain = 0
KAI1 180244Z 14010KT 16/06 A2987 RMK A01 T01610063  RH  052%=      5-min Rain = 0
KAI1 180245Z 16009KT 16/06 A2987 RMK A01 T01610063  RH  052%=      5-min Rain = 0
KAI1 180246Z 16009KT 16/06 A2987 RMK A01 T01600062  RH  052%=      5-min Rain = 0
KAI1 180247Z 15010KT 16/06 A2987 RMK A01 T01600062  RH  052%=      5-min Rain = 0
KAI1 180248Z 15009KT 16/06 A2987 RMK A01 T01600062  RH  052%=      5-min Rain = 0
KAI1 180249Z 16010KT 16/06 A2987 RMK A01 T01600062  RH  052%=      5-min Rain = 0
KAI1 180250Z 16009KT 16/06 A2987 RMK A01 T01600061  RH  052%=      5-min Rain = 0
KAI1 180251Z 16010KT 16/06 A2987 RMK A01 T01610062  RH  052%=      5-min Rain = 0
KAI1 180252Z 16009KT 16/06 A2987 RMK A01 T01610062  RH  052%=      5-min Rain = 0
KAI1 180253Z 16010KT 16/06 A2987 RMK A01 T01600062  RH  052%=      5-min Rain = 0
KAI1 180254Z 16010KT 16/06 A2987 RMK A01 T01600062  RH  052%=      5-min Rain = 0
KAI1 180255Z 16009KT 16/06 A2987 RMK A01 T01600062  RH  052%=      5-min Rain = 0
KAI1 180256Z 16010KT 16/06 A2987 RMK A01 T01600063  RH  052%=      5-min Rain = 0
KAI1 180257Z 16010KT 16/06 A2987 RMK A01 T01600063  RH  052%=      5-min Rain = 0
KAI1 180258Z 16010KT 16/06 A2987 RMK A01 T01600063  RH  052%=      5-min Rain = 0
KAI1 180259Z 16010KT 16/06 A2987 RMK A01 T01600063  RH  052%=      5-min Rain = 0
KAI1 180300Z 15009KT 16/06 A2987 RMK A01 T01600063  RH  052%=      5-min Rain = 0
KAI1 180301Z 16009KT 16/06 A2987 RMK A01 T01600063  RH  052%=      5-min Rain = 0
KAI1 180302Z 16009KT 16/06 A2987 RMK A01 T01590063  RH  053%=      5-min Rain = 0
KAI1 180303Z 16010KT 16/06 A2987 RMK A01 T01580063  RH  053%=      5-min Rain = 0
KAI1 180304Z 16010KT 16/06 A2987 RMK A01 T01580062  RH  053%=      5-min Rain = 0
KAI1 180305Z 16009KT 16/06 A2987 RMK A01 T01580062  RH  053%=      5-min Rain = 0
KAI1 180306Z 16010KT 16/06 A2987 RMK A01 T01570062  RH  053%=      5-min Rain = 0
KAI1 180307Z 15010KT 16/06 A2987 RMK A01 T01570063  RH  053%=      5-min Rain = 0
KAI1 180308Z 16009KT 16/06 A2987 RMK A01 T01570063  RH  053%=      5-min Rain = 0
KAI1 180309Z 16010KT 16/06 A2987 RMK A01 T01560062  RH  053%=      5-min Rain = 0
KAI1 180310Z 16009KT 16/06 A2987 RMK A01 T01560063  RH  054%=      5-min Rain = 0
KAI1 180311Z 15009KT 16/06 A2987 RMK A01 T01560063  RH  054%=      5-min Rain = 0
KAI1 180312Z 16010KT 16/06 A2987 RMK A01 T01550062  RH  054%=      5-min Rain = 0
KAI1 180313Z 16009KT 16/06 A2987 RMK A01 T01550062  RH  054%=      5-min Rain = 0
KAI1 180314Z 16010KT 16/06 A2987 RMK A01 T01550063  RH  054%=      5-min Rain = 0
KAI1 180315Z 16009KT 16/06 A2987 RMK A01 T01550063  RH  054%=      5-min Rain = 0
KAI1 180316Z 16009KT 16/06 A2987 RMK A01 T01550062  RH  054%=      5-min Rain = 0
KAI1 180317Z 16010KT 16/06 A2987 RMK A01 T01550063  RH  054%=      5-min Rain = 0
KAI1 180318Z 16010KT 16/06 A2987 RMK A01 T01560063  RH  054%=      5-min Rain = 0
KAI1 180319Z 16011KT 16/06 A2987 RMK A01 T01560063  RH  054%=      5-min Rain = 0
KAI1 180320Z 16010KT 16/06 A2987 RMK A01 T01560063  RH  054%=      5-min Rain = 0
KAI1 180321Z 16010KT 16/06 A2987 RMK A01 T01560063  RH  054%=      5-min Rain = 0
KAI1 180322Z 16010KT 16/06 A2987 RMK A01 T01560063  RH  054%=      5-min Rain = 0
KAI1 180323Z 16010KT 16/06 A2987 RMK A01 T01560063  RH  054%=      5-min Rain = 0
KAI1 180324Z 16011KT 16/06 A2987 RMK A01 T01560063  RH  054%=      5-min Rain = 0
KAI1 180325Z 16011KT 16/06 A2987 RMK A01 T01560064  RH  054%=      5-min Rain = 0
KAI1 180326Z 16010KT 16/06 A2987 RMK A01 T01560064  RH  054%=      5-min Rain = 0
KAI1 180327Z 16011KT 16/06 A2987 RMK A01 T01560064  RH  054%=      5-min Rain = 0
KAI1 180328Z 16011KT 16/06 A2987 RMK A01 T01560064  RH  054%=      5-min Rain = 0
KAI1 180329Z 16011KT 16/06 A2987 RMK A01 T01560064  RH  054%=      5-min Rain = 0
KAI1 180330Z 16010KT 16/06 A2987 RMK A01 T01560064  RH  054%=      5-min Rain = 0
KAI1 180331Z 16011KT 16/06 A2987 RMK A01 T01570064  RH  054%=      5-min Rain = 0
KAI1 180332Z 17011KT 16/06 A2987 RMK A01 T01570064  RH  054%=      5-min Rain = 0
KAI1 180333Z 16011KT 16/07 A2987 RMK A01 T01570065  RH  054%=      5-min Rain = 0
KAI1 180334Z 16010KT 16/07 A2987 RMK A01 T01580065  RH  054%=      5-min Rain = 0
KAI1 180335Z 16010KT 16/07 A2987 RMK A01 T01590065  RH  054%=      5-min Rain = 0
KAI1 180336Z 16010KT 16/07 A2987 RMK A01 T01590065  RH  054%=      5-min Rain = 0
KAI1 180337Z 16011KT 16/07 A2987 RMK A01 T01590065  RH  054%=      5-min Rain = 0
KAI1 180338Z 16010KT 16/07 A2987 RMK A01 T01590065  RH  054%=      5-min Rain = 0
KAI1 180339Z 16011KT 16/07 A2987 RMK A01 T01590065  RH  054%=      5-min Rain = 0
KAI1 180340Z 17011KT 16/07 A2987 RMK A01 T01600065  RH  053%=      5-min Rain = 0
KAI1 180341Z 16011KT 16/07 A2987 RMK A01 T01600065  RH  053%=      5-min Rain = 0
KAI1 180342Z 16010KT 16/07 A2987 RMK A01 T01600065  RH  053%=      5-min Rain = 0
KAI1 180343Z 17011KT 16/07 A2987 RMK A01 T01600065  RH  053%=      5-min Rain = 0
KAI1 180344Z 16011KT 16/07 A2987 RMK A01 T01600065  RH  053%=      5-min Rain = 0
KAI1 180345Z 16012KT 16/07 A2987 RMK A01 T01600065  RH  053%=      5-min Rain = 0
KAI1 180346Z 16011KT 16/07 A2987 RMK A01 T01610066  RH  053%=      5-min Rain = 0
KAI1 180347Z 16010KT 16/07 A2987 RMK A01 T01610065  RH  053%=      5-min Rain = 0
KAI1 180348Z 16011KT 16/07 A2987 RMK A01 T01610065  RH  053%=      5-min Rain = 0
KAI1 180349Z 16012KT 16/07 A2987 RMK A01 T01620065  RH  053%=      5-min Rain = 0
KAI1 180350Z 16010KT 16/07 A2987 RMK A01 T01620066  RH  053%=      5-min Rain = 0
KAI1 180351Z 16010KT 16/07 A2987 RMK A01 T01620066  RH  053%=      5-min Rain = 0
KAI1 180352Z 16011KT 16/07 A2987 RMK A01 T01620066  RH  053%=      5-min Rain = 0
KAI1 180353Z 16010KT 16/07 A2987 RMK A01 T01610066  RH  053%=      5-min Rain = 0
KAI1 180354Z 16010KT 16/07 A2987 RMK A01 T01610066  RH  053%=      5-min Rain = 0
KAI1 180355Z 16011KT 16/07 A2987 RMK A01 T01600065  RH  053%=      5-min Rain = 0
KAI1 180356Z 16010KT 16/07 A2987 RMK A01 T01600066  RH  053%=      5-min Rain = 0
KAI1 180357Z 16011KT 16/07 A2987 RMK A01 T01600065  RH  053%=      5-min Rain = 0
KAI1 180358Z 16010KT 16/07 A2987 RMK A01 T01600065  RH  053%=      5-min Rain = 0
KAI1 180359Z 16011KT 16/07 A2987 RMK A01 T01600065  RH  053%=      5-min Rain = 0
KAI1 180400Z 16011KT 16/07 A2988 RMK A01 T01600065  RH  053%=      5-min Rain = 0
KAI1 180401Z 16011KT 16/07 A2988 RMK A01 T01600065  RH  053%=      5-min Rain = 0
KAI1 180402Z 16011G16KT 16/07 A2988 RMK A01 T01590065  RH  053%=      5-min Rain = 0
KAI1 180403Z 16011KT 16/07 A2988 RMK A01 T01600065  RH  053%=      5-min Rain = 0
KAI1 180404Z 16011KT 16/07 A2987 RMK A01 T01600065  RH  053%=      5-min Rain = 0
KAI1 180405Z 16009KT 16/07 A2987 RMK A01 T01590065  RH  053%=      5-min Rain = 0
KAI1 180406Z 16009KT 16/07 A2987 RMK A01 T01590065  RH  054%=      5-min Rain = 0
KAI1 180407Z 17011KT 16/06 A2987 RMK A01 T01580064  RH  054%=      5-min Rain = 0
KAI1 180408Z 16011KT 16/06 A2987 RMK A01 T01580063  RH  053%=      5-min Rain = 0
KAI1 180409Z 17011KT 16/06 A2987 RMK A01 T01590064  RH  053%=      5-min Rain = 0
KAI1 180410Z 16011KT 16/06 A2987 RMK A01 T01590063  RH  053%=      5-min Rain = 0
KAI1 180411Z 16011KT 16/06 A2987 RMK A01 T01590063  RH  053%=      5-min Rain = 0
KAI1 180412Z 17012KT 16/06 A2987 RMK A01 T01590063  RH  053%=      5-min Rain = 0
KAI1 180413Z 17011KT 16/06 A2987 RMK A01 T01590063  RH  053%=      5-min Rain = 0
KAI1 180414Z 16012KT 16/06 A2987 RMK A01 T01590063  RH  053%=      5-min Rain = 0
KAI1 180415Z 16012KT 16/06 A2987 RMK A01 T01590063  RH  053%=      5-min Rain = 0
KAI1 180416Z 17012KT 16/06 A2987 RMK A01 T01590062  RH  053%=      5-min Rain = 0
KAI1 180417Z 16012KT 16/06 A2987 RMK A01 T01590062  RH  053%=      5-min Rain = 0
KAI1 180418Z 16011KT 16/06 A2987 RMK A01 T01590062  RH  053%=      5-min Rain = 0
KAI1 180419Z 16013KT 16/06 A2987 RMK A01 T01590062  RH  053%=      5-min Rain = 0
KAI1 180420Z 16011KT 16/06 A2987 RMK A01 T01590062  RH  052%=      5-min Rain = 0
KAI1 180421Z 16012KT 16/06 A2987 RMK A01 T01580061  RH  053%=      5-min Rain = 0
KAI1 180422Z 17012KT 16/06 A2987 RMK A01 T01580061  RH  053%=      5-min Rain = 0
KAI1 180423Z 16012KT 16/06 A2987 RMK A01 T01580061  RH  052%=      5-min Rain = 0
KAI1 180424Z 16012KT 16/06 A2987 RMK A01 T01580061  RH  052%=      5-min Rain = 0
KAI1 180425Z 17011KT 16/06 A2987 RMK A01 T01580061  RH  052%=      5-min Rain = 0
KAI1 180426Z 17013KT 16/06 A2987 RMK A01 T01580061  RH  052%=      5-min Rain = 0
KAI1 180427Z 16012KT 16/06 A2987 RMK A01 T01580060  RH  052%=      5-min Rain = 0
KAI1 180428Z 16012KT 16/06 A2987 RMK A01 T01580060  RH  052%=      5-min Rain = 0
KAI1 180429Z 17011KT 16/06 A2987 RMK A01 T01570060  RH  052%=      5-min Rain = 0
KAI1 180430Z 17012KT 16/06 A2987 RMK A01 T01570059  RH  052%=      5-min Rain = 0
KAI1 180431Z 17013KT 16/06 A2987 RMK A01 T01570059  RH  052%=      5-min Rain = 0
KAI1 180432Z 17012KT 16/06 A2987 RMK A01 T01570059  RH  052%=      5-min Rain = 0
KAI1 180433Z 17013KT 16/06 A2987 RMK A01 T01570058  RH  052%=      5-min Rain = 0
KAI1 180434Z 17012KT 16/06 A2987 RMK A01 T01580058  RH  052%=      5-min Rain = 0
KAI1 180435Z 17013KT 16/06 A2987 RMK A01 T01580058  RH  051%=      5-min Rain = 0
KAI1 180436Z 17012KT 16/06 A2987 RMK A01 T01580058  RH  052%=      5-min Rain = 0
KAI1 180437Z 17012KT 16/06 A2987 RMK A01 T01570058  RH  052%=      5-min Rain = 0
KAI1 180438Z 17013KT 16/06 A2987 RMK A01 T01570058  RH  052%=      5-min Rain = 0
KAI1 180439Z 17012KT 16/06 A2987 RMK A01 T01570058  RH  052%=      5-min Rain = 0
KAI1 180440Z 17012KT 16/06 A2987 RMK A01 T01560058  RH  052%=      5-min Rain = 0
KAI1 180441Z 17012KT 16/06 A2987 RMK A01 T01560058  RH  052%=      5-min Rain = 0
KAI1 180442Z 17010KT 16/06 A2987 RMK A01 T01560057  RH  052%=      5-min Rain = 0
KAI1 180443Z 17012KT 16/06 A2987 RMK A01 T01560057  RH  052%=      5-min Rain = 0
KAI1 180444Z 17012KT 16/06 A2987 RMK A01 T01550057  RH  052%=      5-min Rain = 0
KAI1 180445Z 17011KT 16/06 A2987 RMK A01 T01560057  RH  052%=      5-min Rain = 0
KAI1 180446Z 17011KT 16/06 A2987 RMK A01 T01550056  RH  052%=      5-min Rain = 0
KAI1 180447Z 17014KT 16/06 A2987 RMK A01 T01550056  RH  052%=      5-min Rain = 0
KAI1 180448Z 17012KT 16/06 A2987 RMK A01 T01550056  RH  052%=      5-min Rain = 0
KAI1 180449Z 17010KT 16/06 A2987 RMK A01 T01550056  RH  052%=      5-min Rain = 0
KAI1 180450Z 17012KT 15/06 A2987 RMK A01 T01540056  RH  052%=      5-min Rain = 0
KAI1 180451Z 17012KT 15/06 A2987 RMK A01 T01540056  RH  052%=      5-min Rain = 0
KAI1 180452Z 17012KT 15/06 A2987 RMK A01 T01540056  RH  052%=      5-min Rain = 0
KAI1 180453Z 17011KT 15/06 A2987 RMK A01 T01530056  RH  052%=      5-min Rain = 0
KAI1 180454Z 17012KT 15/06 A2987 RMK A01 T01530056  RH  052%=      5-min Rain = 0
KAI1 180455Z 17011KT 15/06 A2987 RMK A01 T01530056  RH  052%=      5-min Rain = 0
KAI1 180456Z 17012KT 15/06 A2987 RMK A01 T01530056  RH  052%=      5-min Rain = 0
KAI1 180457Z 17013KT 15/06 A2987 RMK A01 T01520055  RH  052%=      5-min Rain = 0
KAI1 180458Z 17012KT 15/06 A2987 RMK A01 T01520055  RH  052%=      5-min Rain = 0
KAI1 180459Z 17011KT 15/06 A2987 RMK A01 T01520055  RH  052%=      5-min Rain = 0

Page generated in 0.0709 seconds.